N4ASP-13 Weather Reports


time (UTC)temp
C
wind
direction
speed
KPH
gust
KPH
rain 1hr
cm
rain 24hr
cm
rain mn
cm
humidity
%
barometer
mb
20260510145238 21 344 8.0 14.5 0.00 0.00 0.00 52 1017.7
20260510145136 21 311 8.0 14.5 0.00 0.00 0.00 51 1017.7
20260510145038 21 292 8.0 16.1 0.00 0.00 0.00 50 1017.8
20260510144936 21 355 8.0 16.1 0.00 0.00 0.00 51 1017.8
20260510144837 21 0 8.0 16.1 0.00 0.00 0.00 51 1017.7
20260510144738 21 24 8.0 16.1 0.00 0.00 0.00 53 1017.7
20260510144538 21 316 9.7 16.1 0.00 0.00 0.00 50 1017.7
20260510144436 20 331 8.0 16.1 0.00 0.00 0.00 53 1017.9
20260510144337 20 336 8.0 16.1 0.00 0.00 0.00 52 1017.8
20260510144238 20 344 8.0 16.1 0.00 0.00 0.00 52 1017.7
20260510144137 20 316 8.0 16.1 0.00 0.00 0.00 49 1017.6
20260510144037 20 323 8.0 14.5 0.00 0.00 0.00 51 1017.7
20260510143938 20 330 8.0 14.5 0.00 0.00 0.00 50 1017.6
20260510143833 20 301 8.0 14.5 0.00 0.00 0.00 51 1017.8
20260510143734 20 347 8.0 16.1 0.00 0.00 0.00 50 1017.7
20260510143633 20 277 6.4 16.1 0.00 0.00 0.00 51 1017.7
20260510143533 20 0 6.4 16.1 0.00 0.00 0.00 51 1017.7
20260510143433 20 348 8.0 16.1 0.00 0.00 0.00 51 1017.7
20260510143332 20 11 8.0 16.1 0.00 0.00 0.00 51 1017.7
20260510143234 20 0 8.0 16.1 0.00 0.00 0.00 51 1017.7
20260510143134 20 333 8.0 16.1 0.00 0.00 0.00 51 1017.7
20260510143033 20 5 8.0 17.7 0.00 0.00 0.00 50 1017.7
20260510142933 20 292 8.0 17.7 0.00 0.00 0.00 51 1017.7
20260510142834 20 325 8.0 17.7 0.00 0.00 0.00 50 1017.5
20260510142734 20 321 8.0 17.7 0.00 0.00 0.00 49 1017.7
20260510142633 20 308 8.0 17.7 0.00 0.00 0.00 51 1017.7
20260510142534 20 311 8.0 17.7 0.00 0.00 0.00 49 1017.7
20260510142435 20 263 8.0 17.7 0.00 0.00 0.00 53 1017.7
20260510142333 20 345 8.0 17.7 0.00 0.00 0.00 52 1017.7
20260510142233 20 327 8.0 17.7 0.00 0.00 0.00 50 1017.7
20260510142133 20 330 6.4 17.7 0.00 0.00 0.00 52 1017.6
20260510142032 20 355 6.4 12.9 0.00 0.00 0.00 51 1017.6
20260510141933 20 301 6.4 12.9 0.00 0.00 0.00 50 1017.6
20260510141833 20 0 6.4 12.9 0.00 0.00 0.00 51 1017.6
20260510141734 20 355 6.4 12.9 0.00 0.00 0.00 51 1017.6
20260510141633 20 331 6.4 12.9 0.00 0.00 0.00 50 1017.6
20260510141534 20 310 4.8 12.9 0.00 0.00 0.00 52 1017.6
20260510141433 20 318 4.8 12.9 0.00 0.00 0.00 50 1017.7
20260510141334 20 300 4.8 12.9 0.00 0.00 0.00 51 1017.6
20260510141233 20 325 4.8 12.9 0.00 0.00 0.00 52 1017.7
20260510141132 20 319 4.8 9.7 0.00 0.00 0.00 51 1017.7
20260510141032 20 313 4.8 9.7 0.00 0.00 0.00 50 1017.6
20260510140934 20 318 4.8 9.7 0.00 0.00 0.00 53 1017.7
20260510140834 20 0 4.8 9.7 0.00 0.00 0.00 53 1017.6
20260510140733 20 338 4.8 9.7 0.00 0.00 0.00 52 1017.7
20260510140634 20 314 4.8 9.7 0.00 0.00 0.00 52 1017.7
20260510140529 20 336 6.4 11.3 0.00 0.00 0.00 52 1017.6
20260510140430 20 346 6.4 11.3 0.00 0.00 0.00 51 1017.6
20260510140330 20 347 6.4 11.3 0.00 0.00 0.00 52 1017.6
20260510140230 20 340 6.4 11.3 0.00 0.00 0.00 53 1017.6
20260510140128 20 340 6.4 11.3 0.00 0.00 0.00 53 1017.7
20260510140029 20 5 6.4 11.3 0.00 0.00 0.00 56 1017.7
20260510135928 20 346 6.4 11.3 0.00 0.00 0.00 52 1017.7
20260510135829 19 0 6.4 11.3 0.00 0.00 0.00 52 1017.6
20260510135730 19 322 6.4 11.3 0.00 0.00 0.00 54 1017.7
20260510135629 19 330 6.4 12.9 0.00 0.00 0.00 51 1017.7
20260510135531 19 300 6.4 12.9 0.00 0.00 0.00 53 1017.7
20260510135429 19 328 6.4 12.9 0.00 0.00 0.00 53 1017.7
20260510135328 19 285 6.4 12.9 0.00 0.00 0.00 52 1017.7
20260510135230 19 10 6.4 12.9 0.00 0.00 0.00 54 1017.7
20260510135130 19 355 6.4 12.9 0.00 0.00 0.00 55 1017.7
20260510135030 19 5 6.4 12.9 0.00 0.00 0.00 54 1017.7
20260510134928 19 337 6.4 12.9 0.00 0.00 0.00 53 1017.7
20260510134829 19 316 6.4 12.9 0.00 0.00 0.00 53 1017.7
20260510134730 19 298 6.4 12.9 0.00 0.00 0.00 53 1017.6
20260510134629 19 323 6.4 12.9 0.00 0.00 0.00 51 1017.7
20260510134530 19 333 6.4 12.9 0.00 0.00 0.00 52 1017.7
20260510134429 19 338 6.4 11.3 0.00 0.00 0.00 52 1017.6
20260510134328 19 324 6.4 11.3 0.00 0.00 0.00 55 1017.7
20260510134229 19 342 6.4 9.7 0.00 0.00 0.00 54 1017.7
20260510134129 19 333 6.4 9.7 0.00 0.00 0.00 53 1017.7
20260510134030 19 298 6.4 9.7 0.00 0.00 0.00 57 1017.7
20260510133930 19 25 6.4 11.3 0.00 0.00 0.00 56 1017.6
20260510133830 19 5 6.4 11.3 0.00 0.00 0.00 54 1017.6
20260510133728 19 355 6.4 11.3 0.00 0.00 0.00 56 1017.6
20260510133629 19 349 6.4 11.3 0.00 0.00 0.00 60 1017.5
20260510133530 19 11 6.4 11.3 0.00 0.00 0.00 59 1017.5
20260510133429 19 338 4.8 11.3 0.00 0.00 0.00 58 1017.6
20260510133330 19 21 4.8 11.3 0.00 0.00 0.00 59 1017.5
20260510133226 19 351 6.4 11.3 0.00 0.00 0.00 56 1017.5
20260510133125 19 5 4.8 11.3 0.00 0.00 0.00 55 1017.6
20260510133026 19 20 4.8 11.3 0.00 0.00 0.00 56 1017.5
20260510132926 19 350 4.8 8.0 0.00 0.00 0.00 60 1017.5
20260510132824 19 13 4.8 8.0 0.00 0.00 0.00 60 1017.5
20260510132726 19 13 4.8 8.0 0.00 0.00 0.00 60 1017.5
20260510132524 18 13 6.4 12.9 0.00 0.00 0.00 61 1017.5
20260510132425 18 13 6.4 12.9 0.00 0.00 0.00 61 1017.5
20260510132325 18 13 6.4 12.9 0.00 0.00 0.00 62 1017.5
20260510132224 18 5 6.4 12.9 0.00 0.00 0.00 61 1017.5
20260510132125 18 23 6.4 12.9 0.00 0.00 0.00 59 1017.5
20260510132022 18 13 6.4 12.9 0.00 0.00 0.00 61 1017.5
20260510131922 18 346 6.4 12.9 0.00 0.00 0.00 61 1017.5
20260510131820 18 346 8.0 12.9 0.00 0.00 0.00 57 1017.6
20260510131720 18 350 8.0 12.9 0.00 0.00 0.00 57 1017.5
20260510131619 18 304 8.0 12.9 0.00 0.00 0.00 58 1017.4
20260510131518 18 292 8.0 12.9 0.00 0.00 0.00 57 1017.5
20260510131419 18 307 8.0 12.9 0.00 0.00 0.00 59 1017.5
20260510131318 18 298 8.0 12.9 0.00 0.00 0.00 57 1017.5
20260510131216 18 318 6.4 12.9 0.00 0.00 0.00 59 1017.4
20260510131115 18 318 6.4 12.9 0.00 0.00 0.00 58 1017.5
20260510131014 18 328 6.4 12.9 0.00 0.00 0.00 57 1017.4
20260510130916 18 355 6.4 12.9 0.00 0.00 0.00 58 1017.4
20260510130816 18 319 6.4 12.9 0.00 0.00 0.00 55 1017.4
20260510130713 18 330 6.4 9.7 0.00 0.00 0.00 56 1017.4
20260510130612 18 326 6.4 9.7 0.00 0.00 0.00 57 1017.3
20260510130514 18 321 6.4 9.7 0.00 0.00 0.00 58 1017.3
20260510130412 18 331 6.4 9.7 0.00 0.00 0.00 59 1017.4
20260510130305 18 351 4.8 8.0 0.00 0.00 0.00 59 1017.3
20260510130205 18 348 4.8 8.0 0.00 0.00 0.00 60 1017.4
20260510130106 18 344 4.8 8.0 0.00 0.00 0.00 62 1017.3
20260510130006 18 327 4.8 8.0 0.00 0.00 0.00 61 1017.2
20260510125906 18 327 4.8 8.0 0.00 0.00 0.00 60 1017.2
20260510125759 18 5 4.8 8.0 0.00 0.00 0.00 62 1017.2
20260510125700 18 5 4.8 8.0 0.00 0.00 0.00 62 1017.2
20260510125600 18 343 4.8 6.4 0.00 0.00 0.00 62 1017.3
20260510125459 18 342 3.2 6.4 0.00 0.00 0.00 64 1017.1
20260510125400 18 320 3.2 6.4 0.00 0.00 0.00 64 1017.1
20260510125258 18 298 3.2 6.4 0.00 0.00 0.00 65 1017.1
20260510125157 18 324 3.2 6.4 0.00 0.00 0.00 64 1017.1
20260510125057 18 311 3.2 6.4 0.00 0.00 0.00 64 1017.1
20260510124958 18 319 3.2 6.4 0.00 0.00 0.00 65 1017.0
20260510124857 18 312 3.2 6.4 0.00 0.00 0.00 64 1017.0
20260510124758 17 291 3.2 6.4 0.00 0.00 0.00 65 1017.2
20260510124658 17 293 3.2 6.4 0.00 0.00 0.00 64 1017.1
20260510124557 17 290 3.2 6.4 0.00 0.00 0.00 65 1017.1
20260510124457 17 304 3.2 6.4 0.00 0.00 0.00 65 1017.1
20260510124357 17 309 3.2 6.4 0.00 0.00 0.00 65 1017.1
20260510124255 17 315 3.2 6.4 0.00 0.00 0.00 67 1017.1
20260510124154 17 298 3.2 6.4 0.00 0.00 0.00 67 1017.1
20260510124052 17 326 3.2 6.4 0.00 0.00 0.00 68 1017.1
20260510123952 17 326 3.2 6.4 0.00 0.00 0.00 68 1017.1
20260510123852 17 326 3.2 6.4 0.00 0.00 0.00 69 1017.0
20260510123752 17 287 3.2 4.8 0.00 0.00 0.00 71 1017.1
20260510123652 17 317 3.2 4.8 0.00 0.00 0.00 70 1017.1
20260510123548 17 317 3.2 6.4 0.00 0.00 0.00 70 1017.1
20260510123448 17 318 3.2 8.0 0.00 0.00 0.00 70 1017.1
20260510123347 17 320 3.2 8.0 0.00 0.00 0.00 70 1017.1
20260510123248 17 314 3.2 8.0 0.00 0.00 0.00 70 1017.0
20260510123148 17 317 3.2 8.0 0.00 0.00 0.00 70 1017.0
20260510123046 17 317 3.2 8.0 0.00 0.00 0.00 71 1017.1
20260510122947 17 300 3.2 8.0 0.00 0.00 0.00 69 1017.0
20260510122845 17 300 3.2 8.0 0.00 0.00 0.00 69 1017.1
20260510122746 17 288 3.2 8.0 0.00 0.00 0.00 69 1017.1
20260510122644 17 292 3.2 8.0 0.00 0.00 0.00 70 1017.1
20260510122544 17 327 3.2 8.0 0.00 0.00 0.00 70 1017.0
20260510122443 17 321 3.2 6.4 0.00 0.00 0.00 72 1017.1
20260510122343 17 332 3.2 6.4 0.00 0.00 0.00 72 1017.0
20260510122244 17 303 3.2 6.4 0.00 0.00 0.00 72 1016.9
20260510122143 17 329 3.2 6.4 0.00 0.00 0.00 73 1016.9
20260510122044 17 329 3.2 6.4 0.00 0.00 0.00 72 1016.9
20260510121944 17 329 1.6 6.4 0.00 0.00 0.00 72 1016.9
20260510121839 17 312 1.6 6.4 0.00 0.00 0.00 71 1016.9
20260510121738 16 308 1.6 6.4 0.00 0.00 0.00 71 1016.9
20260510121638 16 308 1.6 6.4 0.00 0.00 0.00 71 1016.9
20260510121537 16 306 3.2 6.4 0.00 0.00 0.00 72 1016.9
20260510121438 16 311 3.2 6.4 0.00 0.00 0.00 72 1016.9
20260510121338 16 311 3.2 6.4 0.00 0.00 0.00 72 1016.9
20260510121235 16 312 1.6 6.4 0.00 0.00 0.00 73 1016.9
20260510121136 16 313 1.6 4.8 0.00 0.00 0.00 73 1016.9
20260510121034 16 312 3.2 4.8 0.00 0.00 0.00 73 1016.9
20260510120933 16 312 3.2 6.4 0.00 0.00 0.00 73 1016.7
20260510120832 16 312 3.2 6.4 0.00 0.00 0.00 73 1016.7
20260510120730 16 312 3.2 6.4 0.00 0.00 0.00 73 1016.7
20260510120630 16 313 3.2 11.3 0.00 0.00 0.00 72 1016.7
20260510120527 16 313 3.2 11.3 0.00 0.00 0.00 72 1016.6
20260510120425 16 312 3.2 11.3 0.00 0.00 0.00 72 1016.5
20260510120325 16 312 3.2 11.3 0.00 0.00 0.00 71 1016.5
20260510120226 16 312 4.8 11.3 0.00 0.00 0.00 72 1016.5
20260510120127 16 311 4.8 11.3 0.00 0.00 0.00 71 1016.5
20260510120026 16 313 4.8 11.3 0.00 0.00 0.00 71 1016.5
20260510115925 16 320 4.8 11.3 0.00 0.00 0.00 71 1016.5
20260510115826 16 298 4.8 11.3 0.00 0.00 0.00 71 1016.5
20260510115721 16 294 6.4 11.3 0.00 0.00 0.00 70 1016.5
20260510115622 16 317 6.4 11.3 0.00 0.00 0.00 71 1016.5
20260510115519 16 318 6.4 14.5 0.00 0.00 0.00 71 1016.5
20260510115417 16 314 6.4 14.5 0.00 0.00 0.00 70 1016.5
20260510115317 16 296 6.4 14.5 0.00 0.00 0.00 70 1016.4
20260510115216 16 324 6.4 14.5 0.00 0.00 0.00 70 1016.4
20260510115116 16 306 8.0 14.5 0.00 0.00 0.00 70 1016.4
20260510115015 16 317 8.0 14.5 0.00 0.00 0.00 69 1016.3
20260510114916 16 292 8.0 14.5 0.00 0.00 0.00 69 1016.3
20260510114816 16 282 8.0 14.5 0.00 0.00 0.00 69 1016.3
20260510114715 16 307 8.0 16.1 0.00 0.00 0.00 68 1016.2
20260510114609 16 296 8.0 16.1 0.00 0.00 0.00 69 1016.2
20260510114509 16 300 8.0 16.1 0.00 0.00 0.00 69 1016.3
20260510114410 16 295 8.0 16.1 0.00 0.00 0.00 69 1016.2
20260510114209 16 329 8.0 16.1 0.00 0.00 0.00 69 1016.2
20260510114104 16 317 8.0 16.1 0.00 0.00 0.00 69 1016.2
20260510114004 16 288 8.0 16.1 0.00 0.00 0.00 69 1016.1
20260510113905 15 290 8.0 16.1 0.00 0.00 0.00 68 1016.0
20260510113804 15 310 6.4 16.1 0.00 0.00 0.00 69 1016.0
20260510113703 15 315 6.4 16.1 0.00 0.00 0.00 70 1016.0
20260510113552 15 309 6.4 16.1 0.00 0.00 0.00 71 1015.9
20260510113451 15 312 6.4 12.9 0.00 0.00 0.00 72 1015.9
20260510113353 15 305 6.4 16.1 0.00 0.00 0.00 71 1015.9
20260510113251 15 301 6.4 16.1 0.00 0.00 0.00 72 1015.9
20260510113151 15 323 6.4 16.1 0.00 0.00 0.00 73 1015.8
20260510113048 15 315 6.4 16.1 0.00 0.00 0.00 74 1015.9
20260510112945 15 310 6.4 16.1 0.00 0.00 0.00 74 1015.8
20260510112846 15 313 6.4 16.1 0.00 0.00 0.00 74 1015.8
20260510112746 15 302 6.4 16.1 0.00 0.00 0.00 73 1015.7
20260510112645 15 304 6.4 16.1 0.00 0.00 0.00 73 1015.7
20260510112540 15 306 4.8 16.1 0.00 0.00 0.00 74 1015.6
20260510112438 15 288 4.8 16.1 0.00 0.00 0.00 76 1015.7
20260510112340 15 328 3.2 12.9 0.00 0.00 0.00 77 1015.7
20260510112239 15 309 3.2 12.9 0.00 0.00 0.00 78 1015.6
20260510112139 15 301 3.2 6.4 0.00 0.00 0.00 79 1015.5
20260510112031 15 298 3.2 6.4 0.00 0.00 0.00 79 1015.6
20260510111929 15 298 3.2 6.4 0.00 0.00 0.00 80 1015.6
20260510111830 15 269 3.2 4.8 0.00 0.00 0.00 79 1015.6
20260510111729 15 269 3.2 4.8 0.00 0.00 0.00 80 1015.6
20260510111629 15 268 3.2 4.8 0.00 0.00 0.00 80 1015.6
20260510111523 15 268 3.2 4.8 0.00 0.00 0.00 80 1015.5
20260510111423 15 267 3.2 6.4 0.00 0.00 0.00 80 1015.5
20260510111323 15 267 3.2 6.4 0.00 0.00 0.00 80 1015.5
20260510111223 15 268 3.2 6.4 0.00 0.00 0.00 80 1015.5
20260510111124 15 268 3.2 6.4 0.00 0.00 0.00 80 1015.5
20260510111020 15 268 3.2 6.4 0.00 0.00 0.00 80 1015.5
20260510110917 15 269 3.2 6.4 0.00 0.00 0.00 80 1015.5
20260510110818 15 271 3.2 6.4 0.00 0.00 0.00 80 1015.4
20260510110717 15 271 3.2 6.4 0.00 0.00 0.00 80 1015.4
20260510110617 15 272 3.2 6.4 0.00 0.00 0.00 80 1015.4
20260510110508 15 302 3.2 6.4 0.00 0.00 0.00 80 1015.5
20260510110407 14 290 3.2 6.4 0.00 0.00 0.00 80 1015.4
20260510110308 15 290 3.2 6.4 0.00 0.00 0.00 80 1015.4
20260510110207 15 293 3.2 6.4 0.00 0.00 0.00 80 1015.4
20260510110107 14 296 3.2 6.4 0.00 0.00 0.00 80 1015.4
20260510110002 14 295 3.2 6.4 0.00 0.00 0.00 80 1015.4
20260510105902 14 267 3.2 6.4 0.00 0.00 0.00 79 1015.3
20260510105803 14 265 3.2 6.4 0.00 0.00 0.00 79 1015.3
20260510105703 14 313 3.2 6.4 0.00 0.00 0.00 79 1015.4
20260510105601 14 301 3.2 6.4 0.00 0.00 0.00 79 1015.3
20260510105458 14 296 3.2 6.4 0.00 0.00 0.00 79 1015.3
20260510105356 14 296 3.2 6.4 0.00 0.00 0.00 79 1015.4
20260510105257 14 302 3.2 6.4 0.00 0.00 0.00 79 1015.3
20260510105158 14 298 4.8 6.4 0.00 0.00 0.00 79 1015.3
20260510105055 14 310 4.8 11.3 0.00 0.00 0.00 79 1015.1
20260510104948 14 312 4.8 11.3 0.00 0.00 0.00 79 1015.1
20260510104845 14 290 4.8 11.3 0.00 0.00 0.00 79 1015.3
20260510104746 14 298 4.8 11.3 0.00 0.00 0.00 79 1015.3
20260510104646 14 292 4.8 11.3 0.00 0.00 0.00 79 1015.3
20260510104545 14 290 4.8 11.3 0.00 0.00 0.00 79 1015.3
20260510104439 14 291 4.8 11.3 0.00 0.00 0.00 78 1015.3
20260510104338 14 284 4.8 11.3 0.00 0.00 0.00 78 1015.3
20260510104240 14 282 4.8 11.3 0.00 0.00 0.00 78 1015.1
20260510104140 14 281 3.2 11.3 0.00 0.00 0.00 78 1015.3
20260510104040 14 311 3.2 8.0 0.00 0.00 0.00 78 1015.1
20260510103934 14 310 3.2 8.0 0.00 0.00 0.00 78 1015.1
20260510103833 14 309 3.2 8.0 0.00 0.00 0.00 78 1015.1
20260510103734 14 301 3.2 8.0 0.00 0.00 0.00 78 1015.1
20260510103633 14 304 1.6 8.0 0.00 0.00 0.00 78 1015.1
20260510103534 14 269 1.6 4.8 0.00 0.00 0.00 78 1015.1
20260510103425 14 267 1.6 4.8 0.00 0.00 0.00 79 1015.0
20260510103326 14 263 1.6 4.8 0.00 0.00 0.00 79 1015.0
20260510103225 14 259 1.6 4.8 0.00 0.00 0.00 79 1015.0
20260510103125 14 259 1.6 4.8 0.00 0.00 0.00 79 1014.9
20260510103023 14 259 1.6 4.8 0.00 0.00 0.00 79 1015.0
20260510102918 14 259 1.6 4.8 0.00 0.00 0.00 78 1015.0
20260510102816 14 259 1.6 4.8 0.00 0.00 0.00 78 1014.8
20260510102718 14 259 1.6 4.8 0.00 0.00 0.00 79 1014.8
20260510102618 14 259 1.6 3.2 0.00 0.00 0.00 78 1014.8
20260510102517 14 259 1.6 3.2 0.00 0.00 0.00 78 1014.8
20260510102415 14 259 0.0 3.2 0.00 0.00 0.00 78 1014.7
20260510102312 14 259 0.0 3.2 0.00 0.00 0.00 78 1014.7
20260510102212 14 259 0.0 3.2 0.00 0.00 0.00 78 1014.6
20260510102111 14 259 0.0 3.2 0.00 0.00 0.00 78 1014.7
20260510102012 14 259 0.0 3.2 0.00 0.00 0.00 78 1014.5
20260510101901 14 259 0.0 3.2 0.00 0.00 0.00 78 1014.5
20260510101800 14 259 0.0 3.2 0.00 0.00 0.00 78 1014.6
20260510101702 14 259 0.0 6.4 0.00 0.00 0.00 78 1014.5
20260510101602 14 259 0.0 6.4 0.00 0.00 0.00 78 1014.5
20260510101501 14 259 0.0 6.4 0.00 0.00 0.00 78 1014.5
20260510101359 14 259 0.0 6.4 0.00 0.00 0.00 78 1014.5
20260510101259 14 259 0.0 6.4 0.00 0.00 0.00 78 1014.5
20260510101200 14 258 0.0 6.4 0.00 0.00 0.00 78 1014.5
20260510101058 14 295 0.0 6.4 0.00 0.00 0.00 78 1014.4
20260510100955 14 295 0.0 6.4 0.00 0.00 0.00 78 1014.5
20260510100855 14 295 0.0 6.4 0.00 0.00 0.00 78 1014.5
20260510100752 14 295 0.0 6.4 0.00 0.00 0.00 78 1014.5
20260510100653 14 272 0.0 3.2 0.00 0.00 0.00 78 1014.5
20260510100552 14 272 0.0 3.2 0.00 0.00 0.00 78 1014.4
20260510100450 14 272 0.0 3.2 0.00 0.00 0.00 78 1014.5
20260510100342 14 272 0.0 3.2 0.00 0.00 0.00 78 1014.4
20260510100243 14 272 0.0 3.2 0.00 0.00 0.00 78 1014.4
20260510100145 14 272 0.0 3.2 0.00 0.00 0.00 78 1014.4
20260510100043 14 272 0.0 3.2 0.00 0.00 0.00 79 1014.4
20260510095939 14 275 0.0 3.2 0.00 0.00 0.00 79 1014.3
20260510095838 14 275 0.0 3.2 0.00 0.00 0.00 79 1014.3
20260510095737 14 275 0.0 3.2 0.00 0.00 0.00 79 1014.3
20260510095635 14 275 0.0 3.2 0.00 0.00 0.00 79 1014.4
20260510095535 14 275 0.0 3.2 0.00 0.00 0.00 79 1014.3
20260510095434 14 275 0.0 3.2 0.00 0.00 0.00 79 1014.3
20260510095334 14 275 0.0 3.2 0.00 0.00 0.00 79 1014.3
20260510095231 14 275 0.0 0.0 0.00 0.00 0.00 79 1014.4
20260510095131 14 275 0.0 0.0 0.00 0.00 0.00 79 1014.3
20260510095030 14 275 0.0 1.6 0.00 0.00 0.00 79 1014.3
20260510094927 14 275 0.0 1.6 0.00 0.00 0.00 79 1014.3
20260510094819 14 275 0.0 1.6 0.00 0.00 0.00 79 1014.3
20260510094719 14 275 0.0 1.6 0.00 0.00 0.00 78 1014.3
20260510094618 14 275 0.0 3.2 0.00 0.00 0.00 78 1014.2
20260510094516 14 275 0.0 3.2 0.00 0.00 0.00 78 1014.3
20260510094418 14 275 1.6 3.2 0.00 0.00 0.00 78 1014.2
20260510094316 14 275 1.6 4.8 0.00 0.00 0.00 79 1014.3
20260510094215 14 275 1.6 4.8 0.00 0.00 0.00 79 1014.3
20260510094115 14 275 1.6 4.8 0.00 0.00 0.00 79 1014.3
20260510094013 14 275 1.6 4.8 0.00 0.00 0.00 79 1014.3
20260510093912 14 275 1.6 4.8 0.00 0.00 0.00 79 1014.2
20260510093805 14 275 1.6 4.8 0.00 0.00 0.00 79 1014.3
20260510093705 14 275 1.6 4.8 0.00 0.00 0.00 79 1014.4
20260510093606 14 275 1.6 4.8 0.00 0.00 0.00 79 1014.3
20260510093505 15 275 1.6 4.8 0.00 0.00 0.00 79 1014.4
20260510093406 15 275 1.6 4.8 0.00 0.00 0.00 78 1014.3
20260510093257 15 275 1.6 3.2 0.00 0.00 0.00 78 1014.3
20260510093156 15 275 1.6 3.2 0.00 0.00 0.00 78 1014.3
20260510093055 15 275 1.6 4.8 0.00 0.00 0.00 78 1014.3
20260510092955 15 275 1.6 4.8 0.00 0.00 0.00 78 1014.3
20260510092856 15 275 1.6 4.8 0.00 0.00 0.00 78 1014.3
20260510092756 15 275 1.6 4.8 0.00 0.00 0.00 78 1014.3
20260510092654 15 274 1.6 4.8 0.00 0.00 0.00 78 1014.2
20260510092551 15 274 1.6 4.8 0.00 0.00 0.00 78 1014.2
20260510092452 15 274 1.6 4.8 0.00 0.00 0.00 78 1014.2
20260510092349 15 274 1.6 4.8 0.00 0.00 0.00 78 1014.3
20260510092249 15 274 1.6 4.8 0.00 0.00 0.00 78 1014.2
20260510092147 15 274 1.6 4.8 0.00 0.00 0.00 78 1014.2
20260510092047 15 288 1.6 4.8 0.00 0.00 0.00 78 1014.3
20260510091946 15 288 1.6 4.8 0.00 0.00 0.00 78 1014.2
20260510091844 15 288 1.6 4.8 0.00 0.00 0.00 78 1014.3
20260510091737 15 289 1.6 4.8 0.00 0.00 0.00 78 1014.2
20260510091637 15 285 1.6 4.8 0.00 0.00 0.00 78 1014.3
20260510091538 15 311 1.6 3.2 0.00 0.00 0.00 78 1014.1
20260510091437 15 311 1.6 3.2 0.00 0.00 0.00 78 1014.2
20260510091334 15 311 1.6 4.8 0.00 0.00 0.00 78 1014.1
20260510091228 15 311 1.6 4.8 0.00 0.00 0.00 78 1014.2
20260510091127 15 311 1.6 4.8 0.00 0.00 0.00 78 1014.2
20260510091028 15 311 1.6 6.4 0.00 0.00 0.00 78 1014.2
20260510090928 15 312 1.6 6.4 0.00 0.00 0.00 78 1014.1
20260510090828 15 312 1.6 6.4 0.00 0.00 0.00 78 1014.1
20260510090727 15 312 1.6 6.4 0.00 0.00 0.00 78 1014.1
20260510090626 15 312 1.6 6.4 0.00 0.00 0.00 78 1014.1
20260510090524 15 312 1.6 6.4 0.00 0.00 0.00 78 1014.1
20260510090424 15 312 1.6 6.4 0.00 0.00 0.00 78 1014.1
20260510090322 15 312 1.6 6.4 0.00 0.00 0.00 78 1014.1
20260510090213 15 312 1.6 6.4 0.00 0.00 0.00 78 1014.1
20260510090111 15 313 1.6 6.4 0.00 0.00 0.00 78 1014.1
20260510090011 15 277 1.6 3.2 0.00 0.00 0.00 78 1014.2
20260510085912 15 277 1.6 3.2 0.00 0.00 0.00 78 1014.1
20260510085811 15 277 0.0 3.2 0.00 0.00 0.00 78 1014.2
20260510085712 15 277 0.0 3.2 0.00 0.00 0.00 78 1014.2
20260510085609 15 277 0.0 3.2 0.00 0.00 0.00 78 1014.1
20260510085507 15 277 0.0 3.2 0.00 0.00 0.00 77 1014.1
20260510085408 15 277 0.0 3.2 0.00 0.00 0.00 77 1014.1
20260510085306 15 274 0.0 0.0 0.00 0.00 0.00 78 1014.1
20260510085203 15 274 0.0 0.0 0.00 0.00 0.00 77 1014.1
20260510085104 15 274 0.0 0.0 0.00 0.00 0.00 77 1014.1
20260510085000 15 274 0.0 0.0 0.00 0.00 0.00 77 1014.1
20260510084902 15 273 0.0 0.0 0.00 0.00 0.00 77 1014.1
20260510084801 15 273 0.0 0.0 0.00 0.00 0.00 77 1014.1
20260510084701 15 273 0.0 0.0 0.00 0.00 0.00 77 1014.1
20260510084601 15 273 0.0 0.0 0.00 0.00 0.00 77 1014.2
20260510084501 15 273 0.0 0.0 0.00 0.00 0.00 77 1014.1
20260510084401 15 273 0.0 0.0 0.00 0.00 0.00 77 1014.1
20260510084302 15 273 0.0 0.0 0.00 0.00 0.00 77 1014.1
20260510084202 15 273 0.0 0.0 0.00 0.00 0.00 77 1014.1
20260510084100 15 273 0.0 0.0 0.00 0.00 0.00 76 1014.1
20260510083959 15 273 0.0 0.0 0.00 0.00 0.00 76 1014.0
20260510083856 15 273 0.0 0.0 0.00 0.00 0.00 76 1014.1
20260510083758 15 273 0.0 0.0 0.00 0.00 0.00 76 1014.0
20260510083655 15 273 0.0 0.0 0.00 0.00 0.00 76 1014.0
20260510083552 15 274 0.0 0.0 0.00 0.00 0.00 76 1014.0
20260510083454 15 274 0.0 0.0 0.00 0.00 0.00 76 1014.0
20260510083351 15 274 0.0 0.0 0.00 0.00 0.00 76 1014.0
20260510083252 15 274 0.0 0.0 0.00 0.00 0.00 76 1014.0
20260510083151 15 274 0.0 0.0 0.00 0.00 0.00 76 1014.0
20260510083051 15 274 0.0 0.0 0.00 0.00 0.00 76 1014.0
20260510082946 15 274 0.0 0.0 0.00 0.00 0.00 76 1014.0
20260510082845 15 274 0.0 0.0 0.00 0.00 0.00 76 1014.0
20260510082745 15 274 0.0 0.0 0.00 0.00 0.00 76 1013.9
20260510082645 15 274 0.0 1.6 0.00 0.00 0.00 76 1013.9
20260510082546 15 274 0.0 1.6 0.00 0.00 0.00 76 1014.0
20260510082445 15 274 0.0 1.6 0.00 0.00 0.00 76 1013.8
20260510082342 15 274 0.0 1.6 0.00 0.00 0.00 76 1013.9
20260510082244 15 274 0.0 1.6 0.00 0.00 0.00 75 1013.8
20260510082142 15 274 0.0 3.2 0.00 0.00 0.00 75 1013.9
20260510082040 15 274 0.0 3.2 0.00 0.00 0.00 75 1013.8
20260510081939 15 274 0.0 3.2 0.00 0.00 0.00 75 1013.8
20260510081838 15 274 0.0 3.2 0.00 0.00 0.00 75 1013.8
20260510081737 15 274 0.0 4.8 0.00 0.00 0.00 75 1013.8
20260510081636 15 273 0.0 4.8 0.00 0.00 0.00 76 1013.8
20260510081533 15 273 0.0 4.8 0.00 0.00 0.00 75 1013.8
20260510081434 15 273 0.0 4.8 0.00 0.00 0.00 75 1013.7
20260510081332 15 273 0.0 4.8 0.00 0.00 0.00 75 1013.7
20260510081231 15 273 0.0 4.8 0.00 0.00 0.00 75 1013.8
20260510081128 15 275 1.6 4.8 0.00 0.00 0.00 75 1013.7
20260510081030 15 275 1.6 4.8 0.00 0.00 0.00 75 1013.7
20260510080928 15 275 1.6 4.8 0.00 0.00 0.00 75 1013.7
20260510080830 15 275 1.6 4.8 0.00 0.00 0.00 75 1013.7
20260510080728 15 275 1.6 4.8 0.00 0.00 0.00 75 1013.5
20260510080628 15 275 1.6 4.8 0.00 0.00 0.00 75 1013.7
20260510080527 15 275 1.6 4.8 0.00 0.00 0.00 75 1013.7
20260510080427 15 275 1.6 4.8 0.00 0.00 0.00 75 1013.5
20260510080326 15 277 1.6 4.8 0.00 0.00 0.00 75 1013.5
20260510080226 16 277 1.6 4.8 0.00 0.00 0.00 75 1013.5
20260510080125 16 263 1.6 4.8 0.00 0.00 0.00 74 1013.5
20260510080026 16 263 1.6 4.8 0.00 0.00 0.00 74 1013.5
20260510075926 16 263 1.6 4.8 0.00 0.00 0.00 74 1013.5
20260510075825 16 280 1.6 4.8 0.00 0.00 0.00 74 1013.4
20260510075724 16 313 1.6 4.8 0.00 0.00 0.00 74 1013.5
20260510075623 16 313 0.0 4.8 0.00 0.00 0.00 74 1013.4
20260510075523 16 318 0.0 4.8 0.00 0.00 0.00 74 1013.4
20260510075422 16 318 1.6 4.8 0.00 0.00 0.00 74 1013.4
20260510075319 16 318 1.6 6.4 0.00 0.00 0.00 74 1013.4
20260510075220 16 319 1.6 6.4 0.00 0.00 0.00 74 1013.4
20260510075116 16 278 0.0 6.4 0.00 0.00 0.00 74 1013.4
20260510075016 16 301 1.6 6.4 0.00 0.00 0.00 74 1013.4
20260510074915 16 301 1.6 6.4 0.00 0.00 0.00 74 1013.4
20260510074814 16 301 1.6 6.4 0.00 0.00 0.00 74 1013.4
20260510074714 16 299 1.6 6.4 0.00 0.00 0.00 74 1013.4
20260510074612 16 299 1.6 8.0 0.00 0.00 0.00 74 1013.4
20260510074512 16 300 3.2 8.0 0.00 0.00 0.00 73 1013.3
20260510074409 16 300 3.2 8.0 0.00 0.00 0.00 74 1013.4
20260510074309 16 298 3.2 8.0 0.00 0.00 0.00 74 1013.4
20260510074209 16 302 3.2 8.0 0.00 0.00 0.00 74 1013.4
20260510074110 16 302 4.8 8.0 0.00 0.00 0.00 74 1013.3
20260510074007 16 310 4.8 8.0 0.00 0.00 0.00 74 1013.4
20260510073907 16 304 4.8 8.0 0.00 0.00 0.00 73 1013.3
20260510073807 16 306 4.8 9.7 0.00 0.00 0.00 73 1013.3
20260510073704 16 302 4.8 9.7 0.00 0.00 0.00 73 1013.3
20260510073606 16 302 4.8 9.7 0.00 0.00 0.00 73 1013.3
20260510073506 16 304 6.4 9.7 0.00 0.00 0.00 73 1013.3
20260510073406 16 301 6.4 9.7 0.00 0.00 0.00 73 1013.4
20260510073305 16 304 6.4 9.7 0.00 0.00 0.00 73 1013.3
20260510073205 16 309 6.4 9.7 0.00 0.00 0.00 73 1013.3
20260510073106 16 298 6.4 9.7 0.00 0.00 0.00 73 1013.3
20260510073001 16 299 6.4 9.7 0.00 0.00 0.00 73 1013.3
20260510072900 16 273 6.4 9.7 0.00 0.00 0.00 73 1013.2
20260510072801 16 313 6.4 12.9 0.00 0.00 0.00 73 1013.2
20260510072700 16 291 6.4 12.9 0.00 0.00 0.00 73 1013.2
20260510072602 16 299 8.0 12.9 0.00 0.00 0.00 72 1013.2
20260510072501 16 291 8.0 12.9 0.00 0.00 0.00 72 1013.3
20260510072402 16 306 8.0 12.9 0.00 0.00 0.00 72 1013.2
20260510072300 16 290 8.0 12.9 0.00 0.00 0.00 72 1013.3
20260510072202 16 314 8.0 12.9 0.00 0.00 0.00 73 1013.3
20260510072100 16 296 8.0 12.9 0.00 0.00 0.00 73 1013.2
20260510072002 16 273 8.0 12.9 0.00 0.00 0.00 73 1013.2
20260510071900 16 303 8.0 12.9 0.00 0.00 0.00 73 1013.3
20260510071801 16 300 6.4 12.9 0.00 0.00 0.00 73 1013.2
20260510071701 16 295 6.4 12.9 0.00 0.00 0.00 73 1013.3
20260510071601 16 287 6.4 12.9 0.00 0.00 0.00 73 1013.2
20260510071501 16 311 6.4 12.9 0.00 0.00 0.00 73 1013.3
20260510071401 16 301 6.4 11.3 0.00 0.00 0.00 73 1013.2
20260510071258 16 304 6.4 11.3 0.00 0.00 0.00 73 1013.2
20260510071155 16 294 6.4 11.3 0.00 0.00 0.00 73 1013.3
20260510071056 16 314 6.4 12.9 0.00 0.00 0.00 73 1013.2
20260510070956 16 301 6.4 12.9 0.00 0.00 0.00 73 1013.2
20260510070855 16 307 6.4 12.9 0.00 0.00 0.00 74 1013.2
20260510070748 16 303 4.8 12.9 0.00 0.00 0.00 74 1013.3
20260510070649 16 309 4.8 12.9 0.00 0.00 0.00 74 1013.3
20260510070549 16 302 4.8 12.9 0.00 0.00 0.00 74 1013.3
20260510070450 16 300 4.8 12.9 0.00 0.00 0.00 74 1013.3
20260510070349 16 295 4.8 12.9 0.00 0.00 0.00 74 1013.4
20260510070246 16 291 4.8 12.9 0.00 0.00 0.00 74 1013.3
20260510070142 16 294 3.2 12.9 0.00 0.00 0.00 74 1013.4
20260510070044 15 293 3.2 6.4 0.00 0.00 0.00 74 1013.4
20260510065942 15 280 3.2 6.4 0.00 0.00 0.00 75 1013.4
20260510065843 15 271 3.2 6.4 0.00 0.00 0.00 75 1013.3
20260510065744 15 296 3.2 8.0 0.00 0.00 0.00 74 1013.3
20260510065641 15 278 3.2 8.0 0.00 0.00 0.00 75 1013.3
20260510065539 15 276 3.2 8.0 0.00 0.00 0.00 75 1013.3
20260510065439 15 266 3.2 8.0 0.00 0.00 0.00 75 1013.3
20260510065339 15 261 3.2 8.0 0.00 0.00 0.00 75 1013.3
20260510065240 15 278 3.2 8.0 0.00 0.00 0.00 75 1013.2
20260510065138 15 286 3.2 8.0 0.00 0.00 0.00 75 1013.2
20260510065038 15 290 3.2 8.0 0.00 0.00 0.00 75 1013.3
20260510064937 15 302 3.2 8.0 0.00 0.00 0.00 75 1013.3
20260510064838 15 309 1.6 8.0 0.00 0.00 0.00 75 1013.3
20260510064734 15 269 1.6 6.4 0.00 0.00 0.00 75 1013.2
20260510064633 15 263 1.6 4.8 0.00 0.00 0.00 76 1013.3
20260510064533 15 262 1.6 4.8 0.00 0.00 0.00 76 1013.3
20260510064432 15 271 1.6 4.8 0.00 0.00 0.00 76 1013.3
20260510064330 15 271 1.6 4.8 0.00 0.00 0.00 76 1013.2
20260510064230 15 271 1.6 4.8 0.00 0.00 0.00 76 1013.4
20260510064131 15 271 1.6 4.8 0.00 0.00 0.00 76 1013.3
20260510064030 15 269 1.6 4.8 0.00 0.00 0.00 76 1013.3
20260510063929 15 269 1.6 4.8 0.00 0.00 0.00 77 1013.3
20260510063828 15 269 0.0 4.8 0.00 0.00 0.00 76 1013.4
20260510063728 15 269 0.0 4.8 0.00 0.00 0.00 76 1013.3
20260510063625 15 269 0.0 3.2 0.00 0.00 0.00 77 1013.3
20260510063524 15 269 0.0 3.2 0.00 0.00 0.00 77 1013.4
20260510063423 15 269 0.0 0.0 0.00 0.00 0.00 77 1013.3
20260510063323 15 269 0.0 0.0 0.00 0.00 0.00 77 1013.4
20260510063220 15 269 0.0 0.0 0.00 0.00 0.00 77 1013.3
20260510063120 15 269 0.0 0.0 0.00 0.00 0.00 77 1013.4
20260510063015 15 269 0.0 1.6 0.00 0.00 0.00 77 1013.3
20260510062912 15 269 0.0 1.6 0.00 0.00 0.00 77 1013.4
20260510062813 15 269 0.0 1.6 0.00 0.00 0.00 77 1013.3
20260510062712 15 269 0.0 1.6 0.00 0.00 0.00 77 1013.4
20260510062609 15 269 0.0 1.6 0.00 0.00 0.00 77 1013.4
20260510062503 15 269 0.0 1.6 0.00 0.00 0.00 77 1013.3
20260510062404 15 269 0.0 1.6 0.00 0.00 0.00 78 1013.4
20260510062306 15 269 0.0 6.4 0.00 0.00 0.00 77 1013.4
20260510062204 15 269 0.0 6.4 0.00 0.00 0.00 78 1013.4
20260510062104 15 269 0.0 6.4 0.00 0.00 0.00 78 1013.3
20260510061957 15 269 0.0 6.4 0.00 0.00 0.00 78 1013.4
20260510061856 15 269 0.0 6.4 0.00 0.00 0.00 78 1013.4
20260510061757 15 269 0.0 6.4 0.00 0.00 0.00 78 1013.4
20260510061657 15 269 0.0 6.4 0.00 0.00 0.00 77 1013.4
20260510061557 15 269 0.0 6.4 0.00 0.00 0.00 78 1013.4
20260510061457 15 269 0.0 6.4 0.00 0.00 0.00 77 1013.4
20260510061357 15 269 0.0 6.4 0.00 0.00 0.00 77 1013.4
20260510061258 15 240 1.6 4.8 0.00 0.00 0.00 78 1013.5
20260510061156 15 240 0.0 4.8 0.00 0.00 0.00 77 1013.4
20260510061056 15 240 1.6 4.8 0.00 0.00 0.00 77 1013.5
20260510060956 15 240 1.6 4.8 0.00 0.00 0.00 77 1013.5
20260510060856 15 282 1.6 4.8 0.00 0.00 0.00 78 1013.5
20260510060757 15 282 1.6 6.4 0.00 0.00 0.00 78 1013.5
20260510060655 15 282 1.6 6.4 0.00 0.00 0.00 78 1013.5
20260510060556 15 282 1.6 6.4 0.00 0.00 0.00 78 1013.5
20260510060452 15 283 1.6 6.4 0.00 0.00 0.00 78 1013.5
20260510060351 15 284 1.6 6.4 0.00 0.00 0.00 78 1013.4
20260510060250 15 283 1.6 6.4 0.00 0.00 0.00 78 1013.4
20260510060149 15 281 1.6 6.4 0.00 0.00 0.00 78 1013.4
20260510060049 15 281 1.6 6.4 0.00 0.00 0.00 78 1013.4
20260510055950 15 293 0.0 6.4 0.00 0.00 0.00 78 1013.4
20260510055849 15 294 0.0 6.4 0.00 0.00 0.00 79 1013.5
20260510055745 15 287 0.0 3.2 0.00 0.00 0.00 79 1013.4
20260510055644 15 287 0.0 3.2 0.00 0.00 0.00 79 1013.5
20260510055542 15 287 0.0 3.2 0.00 0.00 0.00 79 1013.5
20260510055443 15 287 0.0 3.2 0.00 0.00 0.00 79 1013.5
20260510055344 15 287 0.0 3.2 0.00 0.00 0.00 78 1013.7
20260510055244 15 287 0.0 3.2 0.00 0.00 0.00 78 1013.5
20260510055142 15 287 0.0 6.4 0.00 0.00 0.00 78 1013.8
20260510055042 15 284 0.0 6.4 0.00 0.00 0.00 78 1013.7
20260510054939 15 281 0.0 6.4 0.00 0.00 0.00 78 1013.7
20260510054839 15 281 0.0 6.4 0.00 0.00 0.00 78 1013.7
20260510054739 15 281 0.0 6.4 0.00 0.00 0.00 79 1013.5
20260510054639 15 280 0.0 6.4 0.00 0.00 0.00 79 1013.7
20260510054538 15 281 0.0 6.4 0.00 0.00 0.00 79 1013.7
20260510054438 15 281 0.0 6.4 0.00 0.00 0.00 79 1013.5
20260510054340 15 281 0.0 6.4 0.00 0.00 0.00 79 1013.5
20260510054238 15 277 0.0 6.4 0.00 0.00 0.00 79 1013.5
20260510054137 15 230 0.0 4.8 0.00 0.00 0.00 79 1013.5
20260510054035 15 223 0.0 4.8 0.00 0.00 0.00 79 1013.5
20260510053936 15 223 0.0 4.8 0.00 0.00 0.00 79 1013.5
20260510053834 15 223 0.0 4.8 0.00 0.00 0.00 80 1013.5
20260510053733 15 223 0.0 4.8 0.00 0.00 0.00 80 1014.0
20260510053631 15 223 0.0 4.8 0.00 0.00 0.00 80 1013.5
20260510053532 15 223 0.0 4.8 0.00 0.00 0.00 80 1013.5
20260510053428 15 223 0.0 4.8 0.00 0.00 0.00 80 1013.4
20260510053330 15 223 0.0 6.4 0.00 0.00 0.00 80 1013.5
20260510053227 15 223 0.0 6.4 0.00 0.00 0.00 80 1013.5
20260510053125 15 223 1.6 6.4 0.00 0.00 0.00 80 1013.5
20260510053025 15 223 1.6 6.4 0.00 0.00 0.00 80 1013.5
20260510052924 15 223 1.6 6.4 0.00 0.00 0.00 80 1013.5
20260510052826 15 223 1.6 6.4 0.00 0.00 0.00 80 1013.5
20260510052724 15 223 1.6 6.4 0.00 0.00 0.00 80 1013.4
20260510052621 15 223 1.6 6.4 0.00 0.00 0.00 80 1013.5
20260510052515 15 223 1.6 6.4 0.00 0.00 0.00 80 1013.5
20260510052414 15 221 1.6 6.4 0.00 0.00 0.00 79 1013.5
20260510052315 15 237 1.6 6.4 0.00 0.00 0.00 80 1013.5
20260510052215 15 330 1.6 6.4 0.00 0.00 0.00 80 1013.5
20260510052115 15 290 0.0 6.4 0.00 0.00 0.00 80 1013.4
20260510052014 15 290 0.0 6.4 0.00 0.00 0.00 80 1013.5
20260510051913 15 290 0.0 6.4 0.00 0.00 0.00 80 1013.5
20260510051812 15 290 0.0 6.4 0.00 0.00 0.00 80 1013.5
20260510051712 15 290 0.0 6.4 0.00 0.00 0.00 80 1013.5
20260510051610 15 299 0.0 6.4 0.00 0.00 0.00 80 1013.4
20260510051505 15 252 0.0 6.4 0.00 0.00 0.00 81 1013.4
20260510051405 15 264 0.0 3.2 0.00 0.00 0.00 81 1013.4
20260510051303 15 264 0.0 3.2 0.00 0.00 0.00 81 1013.4
20260510051203 15 264 0.0 3.2 0.00 0.00 0.00 82 1013.5
20260510051104 15 264 0.0 3.2 0.00 0.00 0.00 82 1013.7
20260510051002 15 264 1.6 3.2 0.00 0.00 0.00 82 1013.5
20260510050902 15 264 1.6 3.2 0.00 0.00 0.00 82 1013.7
20260510050802 15 263 1.6 3.2 0.00 0.00 0.00 83 1013.7
20260510050703 15 263 1.6 3.2 0.00 0.00 0.00 83 1013.7
20260510050603 15 263 1.6 3.2 0.00 0.00 0.00 83 1013.7
20260510050502 15 263 1.6 3.2 0.00 0.00 0.00 83 1013.7
20260510050403 15 263 1.6 3.2 0.00 0.00 0.00 83 1013.7
20260510050302 15 263 1.6 3.2 0.00 0.00 0.00 84 1013.8
20260510050201 15 263 1.6 3.2 0.00 0.00 0.00 84 1013.7
20260510050058 15 263 1.6 3.2 0.00 0.00 0.00 84 1013.8
20260510045959 15 263 1.6 3.2 0.00 0.00 0.00 84 1013.8
20260510045859 15 263 0.0 3.2 0.00 0.00 0.00 84 1013.9
20260510045759 15 263 0.0 3.2 0.00 0.00 0.00 85 1013.8
20260510045659 15 263 0.0 3.2 0.00 0.00 0.00 85 1013.8
20260510045559 15 263 0.0 3.2 0.00 0.00 0.00 85 1013.9
20260510045500 15 263 0.0 3.2 0.00 0.00 0.00 85 1013.8
20260510045358 15 263 0.0 3.2 0.00 0.00 0.00 86 1013.7
20260510045258 15 262 0.0 3.2 0.00 0.00 0.00 86 1013.7
20260510045159 15 262 0.0 3.2 0.00 0.00 0.00 86 1013.7
20260510045058 15 262 0.0 3.2 0.00 0.00 0.00 86 1013.5
20260510044958 15 261 0.0 3.2 0.00 0.00 0.00 87 1013.5
20260510044900 16 261 0.0 3.2 0.00 0.00 0.00 87 1013.7
20260510044759 16 261 0.0 3.2 0.00 0.00 0.00 87 1013.5
20260510044700 16 261 0.0 3.2 0.00 0.00 0.00 87 1013.7
20260510044558 16 261 0.0 3.2 0.00 0.00 0.00 87 1013.5
20260510044500 16 261 0.0 3.2 0.00 0.00 0.00 87 1013.5
20260510044358 16 261 0.0 3.2 0.00 0.00 0.00 87 1013.7
20260510044259 16 261 0.0 3.2 0.00 0.00 0.00 87 1013.7
20260510044200 16 261 0.0 3.2 0.00 0.00 0.00 87 1013.4
20260510044059 16 261 0.0 3.2 0.00 0.00 0.00 87 1013.5
20260510043958 16 261 0.0 3.2 0.00 0.00 0.00 88 1013.5
20260510043859 16 261 0.0 3.2 0.00 0.00 0.00 88 1013.5
20260510043800 16 261 0.0 3.2 0.00 0.00 0.00 88 1013.4
20260510043656 16 261 1.6 3.2 0.00 0.00 0.00 88 1013.4
20260510043554 16 261 1.6 3.2 0.00 0.00 0.00 88 1013.7
20260510043454 16 261 1.6 3.2 0.00 0.00 0.00 88 1013.7
20260510043355 16 261 1.6 3.2 0.00 0.00 0.00 88 1013.7
20260510043255 16 261 1.6 3.2 0.00 0.00 0.00 88 1013.7
20260510043155 16 261 0.0 3.2 0.00 0.00 0.00 88 1013.8
20260510043054 16 261 0.0 3.2 0.00 0.00 0.00 88 1013.8
20260510042955 16 284 0.0 3.2 0.00 0.00 0.00 88 1013.8
20260510042855 16 285 1.6 4.8 0.00 0.00 0.00 88 1013.8
20260510042755 16 285 0.0 4.8 0.00 0.00 0.00 88 1013.8
20260510042656 16 285 1.6 4.8 0.00 0.00 0.00 87 1013.8
20260510042555 16 286 1.6 6.4 0.00 0.00 0.00 87 1013.8
20260510042454 16 286 1.6 6.4 0.00 0.00 0.00 87 1013.9
20260510042354 16 286 1.6 6.4 0.00 0.00 0.00 88 1013.8
20260510042255 16 286 1.6 6.4 0.00 0.00 0.00 88 1013.8
20260510042155 16 286 1.6 6.4 0.00 0.00 0.00 88 1013.9
20260510042055 16 286 1.6 6.4 0.00 0.00 0.00 88 1013.9
20260510041955 16 286 1.6 6.4 0.00 0.00 0.00 88 1013.8
20260510041854 16 240 1.6 6.4 0.00 0.00 0.00 88 1013.8
20260510041756 16 186 1.6 6.4 0.00 0.00 0.00 88 1013.8
20260510041654 16 186 0.0 6.4 0.00 0.00 0.00 88 1013.7
20260510041554 16 196 0.0 6.4 0.00 0.00 0.00 88 1013.5
20260510041455 16 286 0.0 3.2 0.00 0.00 0.00 88 1013.7
20260510041355 16 286 0.0 3.2 0.00 0.00 0.00 88 1013.7
20260510041254 16 286 0.0 3.2 0.00 0.00 0.00 88 1013.7
20260510041156 16 285 0.0 3.2 0.00 0.00 0.00 88 1013.8
20260510041055 16 286 0.0 3.2 0.00 0.00 0.00 87 1013.7
20260510040954 16 315 0.0 3.2 0.00 0.00 0.00 87 1013.8
20260510040856 16 313 0.0 3.2 0.00 0.00 0.00 87 1013.8
20260510040754 16 316 0.0 3.2 0.00 0.00 0.00 87 1013.9
20260510040654 16 182 0.0 3.2 0.00 0.00 0.00 87 1013.9
20260510040554 16 184 0.0 3.2 0.00 0.00 0.00 87 1013.8
20260510040456 16 184 0.0 3.2 0.00 0.00 0.00 87 1013.8
20260510040351 16 184 0.0 4.8 0.00 0.00 0.00 87 1013.7
20260510040250 16 184 0.0 4.8 0.00 0.00 0.00 87 1013.8
20260510040151 16 184 0.0 4.8 0.00 0.00 0.00 87 1013.7
20260510040052 16 184 1.6 4.8 0.00 0.00 0.00 87 1013.8
20260510035952 16 184 1.6 4.8 0.00 0.00 0.00 87 1013.8
20260510035848 16 184 1.6 4.8 0.00 0.00 0.00 87 1013.8
20260510035748 16 184 0.0 4.8 0.00 0.00 0.00 87 1013.5
20260510035646 16 184 0.0 4.8 0.00 0.00 0.00 87 1013.7
20260510035547 16 184 0.0 4.8 0.00 0.00 0.00 87 1013.7
20260510035447 16 186 0.0 3.2 0.00 0.00 0.00 87 1013.8
20260510035348 16 189 0.0 3.2 0.00 0.00 0.00 87 1013.7
20260510035244 16 189 0.0 3.2 0.00 0.00 0.00 87 1013.7
20260510035145 16 189 0.0 3.2 0.00 0.00 0.00 87 1013.8
20260510035042 16 189 0.0 3.2 0.00 0.00 0.00 87 1013.7
20260510034944 16 189 0.0 3.2 0.00 0.00 0.00 87 1013.7
20260510034842 16 190 0.0 3.2 0.00 0.00 0.00 87 1013.7
20260510034739 16 193 0.0 3.2 0.00 0.00 0.00 87 1013.7
20260510034640 16 193 0.0 3.2 0.00 0.00 0.00 87 1013.8
20260510034537 16 193 0.0 3.2 0.00 0.00 0.00 87 1013.7
20260510034438 16 193 0.0 3.2 0.00 0.00 0.00 87 1013.7
20260510034335 16 193 0.0 3.2 0.00 0.00 0.00 87 1013.7
20260510034234 16 193 1.6 3.2 0.00 0.00 0.00 87 1013.8
20260510034131 16 193 1.6 3.2 0.00 0.00 0.00 87 1013.7
20260510034032 16 193 1.6 3.2 0.00 0.00 0.00 87 1013.8
20260510033932 16 193 1.6 3.2 0.00 0.00 0.00 87 1013.7
20260510033832 16 193 1.6 3.2 0.00 0.00 0.00 87 1013.7
20260510033732 16 194 1.6 3.2 0.00 0.00 0.00 87 1013.7
20260510033627 16 194 1.6 3.2 0.00 0.00 0.00 87 1013.7
20260510033526 16 194 1.6 3.2 0.00 0.00 0.00 87 1013.7
20260510033426 16 194 1.6 3.2 0.00 0.00 0.00 87 1013.7
20260510033328 16 194 1.6 3.2 0.00 0.00 0.00 87 1013.9
20260510033225 16 194 1.6 3.2 0.00 0.00 0.00 87 1013.8
20260510033126 16 194 0.0 3.2 0.00 0.00 0.00 87 1013.7
20260510033023 16 194 0.0 3.2 0.00 0.00 0.00 87 1013.8
20260510032924 16 194 0.0 3.2 0.00 0.00 0.00 87 1013.8
20260510032822 16 194 0.0 3.2 0.00 0.00 0.00 87 1013.8
20260510032719 16 194 0.0 4.8 0.00 0.00 0.00 87 1013.8
20260510032615 16 194 0.0 4.8 0.00 0.00 0.00 87 1013.7
20260510032515 16 194 0.0 4.8 0.00 0.00 0.00 87 1013.8
20260510032415 16 194 0.0 4.8 0.00 0.00 0.00 87 1013.8
20260510032315 16 194 1.6 4.8 0.00 0.00 0.00 87 1013.7
20260510032216 16 194 1.6 4.8 0.00 0.00 0.00 87 1013.8
20260510032112 16 194 1.6 4.8 0.00 0.00 0.00 87 1013.8
20260510032012 16 194 1.6 4.8 0.00 0.00 0.00 87 1013.8
20260510031913 16 194 1.6 4.8 0.00 0.00 0.00 87 1013.8
20260510031813 16 196 1.6 4.8 0.00 0.00 0.00 87 1013.8
20260510031712 16 157 1.6 3.2 0.00 0.00 0.00 87 1013.8
20260510031613 16 157 0.0 3.2 0.00 0.00 0.00 87 1013.8
20260510031514 16 157 0.0 3.2 0.00 0.00 0.00 87 1013.8
20260510031410 16 157 0.0 3.2 0.00 0.00 0.00 87 1013.7
20260510031311 16 157 0.0 3.2 0.00 0.00 0.00 87 1013.8
20260510031210 16 186 0.0 0.0 0.00 0.00 0.00 87 1013.8
20260510031112 16 186 0.0 0.0 0.00 0.00 0.00 87 1013.8
20260510031012 16 186 0.0 1.6 0.00 0.00 0.00 87 1013.8
20260510030905 16 186 0.0 1.6 0.00 0.00 0.00 87 1013.7
20260510030805 16 186 0.0 1.6 0.00 0.00 0.00 87 1013.8
20260510030705 16 186 0.0 1.6 0.00 0.00 0.00 87 1013.8
20260510030604 16 186 0.0 1.6 0.00 0.00 0.00 88 1013.8
20260510030505 16 186 0.0 1.6 0.00 0.00 0.00 88 1013.8
20260510030403 16 186 0.0 1.6 0.00 0.00 0.00 88 1013.8
20260510030303 16 186 0.0 1.6 0.00 0.00 0.00 88 1013.9
20260510030204 16 186 0.0 1.6 0.00 0.00 0.00 88 1013.8
20260510030103 16 186 0.0 3.2 0.00 0.00 0.00 88 1013.9
20260510030004 16 186 0.0 3.2 0.00 0.00 0.00 88 1013.9
20260510025904 16 186 0.0 3.2 0.00 0.00 0.00 88 1013.8
20260510025800 16 186 0.0 3.2 0.00 0.00 0.00 88 1013.9
20260510025700 16 186 0.0 3.2 0.00 0.00 0.00 88 1013.9
20260510025601 16 186 0.0 3.2 0.00 0.00 0.00 88 1013.9
20260510025502 16 186 0.0 3.2 0.00 0.00 0.00 88 1013.9
20260510025400 16 186 0.0 3.2 0.00 0.00 0.00 88 1013.8
20260510025256 16 186 0.0 3.2 0.00 0.00 0.00 88 1013.8
20260510025156 16 186 0.0 3.2 0.00 0.00 0.00 88 1013.9
20260510025055 16 186 0.0 3.2 0.00 0.00 0.00 88 1013.9
20260510024953 16 186 0.0 3.2 0.00 0.00 0.00 88 1013.9
20260510024854 16 186 0.0 3.2 0.00 0.00 0.00 88 1013.9
20260510024750 16 186 0.0 3.2 0.00 0.00 0.00 88 1013.8
20260510024652 16 186 0.0 3.2 0.00 0.00 0.00 88 1013.9
20260510024549 16 173 0.0 1.6 0.00 0.00 0.00 88 1013.9
20260510024450 16 173 0.0 1.6 0.00 0.00 0.00 88 1013.8
20260510024348 16 173 0.0 1.6 0.00 0.00 0.00 88 1013.8
20260510024244 16 173 0.0 1.6 0.00 0.00 0.00 88 1013.8
20260510024143 16 173 0.0 3.2 0.00 0.00 0.00 88 1013.8
20260510024043 16 173 0.0 3.2 0.00 0.00 0.00 88 1013.7
20260510023942 16 173 0.0 3.2 0.00 0.00 0.00 88 1013.7
20260510023843 16 173 0.0 3.2 0.00 0.00 0.00 88 1013.7
20260510023742 16 173 0.0 3.2 0.00 0.00 0.00 88 1013.5
20260510023634 16 173 0.0 3.2 0.00 0.00 0.00 88 1013.7
20260510023536 16 173 0.0 3.2 0.00 0.00 0.00 88 1013.7
20260510023436 16 173 0.0 3.2 0.00 0.00 0.00 88 1013.5
20260510023336 16 173 0.0 3.2 0.00 0.00 0.00 88 1013.5
20260510023236 16 173 0.0 3.2 0.00 0.00 0.00 88 1013.5
20260510023130 16 173 0.0 3.2 0.00 0.00 0.00 88 1013.5
20260510023029 16 173 0.0 3.2 0.00 0.00 0.00 88 1013.7
20260510022928 16 173 0.0 3.2 0.00 0.00 0.00 88 1013.7
20260510022830 16 173 1.6 4.8 0.00 0.00 0.00 88 1013.7
20260510022728 16 173 1.6 4.8 0.00 0.00 0.00 88 1013.7
20260510022627 16 175 1.6 4.8 0.00 0.00 0.00 88 1013.5
20260510022526 16 175 1.6 4.8 0.00 0.00 0.00 88 1013.7
20260510022326 16 175 3.2 4.8 0.00 0.00 0.00 88 1013.5
20260510022224 16 175 3.2 6.4 0.00 0.00 0.00 88 1013.4
20260510022124 16 175 3.2 8.0 0.00 0.00 0.00 88 1013.4
20260510022024 16 175 3.2 8.0 0.00 0.00 0.00 88 1013.4
20260510021922 16 175 3.2 8.0 0.00 0.00 0.00 88 1013.4
20260510021823 16 175 3.2 8.0 0.00 0.00 0.00 88 1013.4
20260510021723 16 176 3.2 8.0 0.00 0.00 0.00 88 1013.4
20260510021622 16 176 3.2 8.0 0.00 0.00 0.00 88 1013.4
20260510021522 16 182 3.2 8.0 0.00 0.00 0.00 88 1013.4
20260510021424 16 187 3.2 8.0 0.00 0.00 0.00 88 1013.4
20260510021322 16 187 3.2 8.0 0.00 0.00 0.00 88 1013.4
20260510021223 16 195 3.2 8.0 0.00 0.00 0.00 88 1013.4
20260510021121 16 166 3.2 8.0 0.00 0.00 0.00 88 1013.4
20260510021022 16 165 3.2 8.0 0.00 0.00 0.00 88 1013.5
20260510020921 16 155 1.6 4.8 0.00 0.00 0.00 88 1013.3
20260510020821 16 155 1.6 4.8 0.00 0.00 0.00 87 1013.3
20260510020717 16 155 1.6 4.8 0.00 0.00 0.00 87 1013.3
20260510020617 16 155 1.6 4.8 0.00 0.00 0.00 87 1013.4
20260510020517 16 156 1.6 4.8 0.00 0.00 0.00 87 1013.4
20260510020417 16 155 1.6 4.8 0.00 0.00 0.00 87 1013.3
20260510020317 16 155 1.6 4.8 0.00 0.00 0.00 87 1013.2
20260510020219 16 155 1.6 4.8 0.00 0.00 0.00 87 1013.2
20260510020117 16 155 1.6 4.8 0.00 0.00 0.00 87 1013.2
20260510020018 16 155 3.2 8.0 0.00 0.00 0.00 87 1013.2
20260510015917 16 155 3.2 8.0 0.00 0.00 0.00 87 1013.2
20260510015716 16 155 3.2 8.0 0.00 0.00 0.00 87 1013.1
20260510015616 16 153 3.2 8.0 0.00 0.00 0.00 87 1013.2
20260510015518 16 153 3.2 8.0 0.00 0.00 0.00 87 1013.1
20260510015416 16 153 3.2 8.0 0.00 0.00 0.00 87 1013.0
20260510015316 16 157 3.2 8.0 0.00 0.00 0.00 87 1013.0
20260510015216 16 157 3.2 8.0 0.00 0.00 0.00 87 1013.0
20260510015116 16 157 3.2 8.0 0.00 0.00 0.00 87 1012.9
20260510015016 16 163 3.2 8.0 0.00 0.00 0.00 87 1012.9
20260510014916 16 188 3.2 9.7 0.00 0.00 0.00 87 1012.9
20260510014817 16 188 3.2 9.7 0.00 0.00 0.00 87 1012.9
20260510014716 16 188 3.2 9.7 0.00 0.00 0.00 87 1012.8
20260510014617 16 189 3.2 9.7 0.00 0.00 0.00 87 1012.8
20260510014517 16 191 3.2 9.7 0.00 0.00 0.00 87 1012.8
20260510014417 16 171 3.2 9.7 0.00 0.00 0.00 87 1012.8
20260510014317 16 174 3.2 9.7 0.00 0.00 0.00 87 1012.8
20260510014217 16 151 3.2 9.7 0.00 0.00 0.00 86 1012.8
20260510014116 16 151 1.6 9.7 0.00 0.00 0.00 86 1012.8
20260510014016 16 150 1.6 9.7 0.00 0.00 0.00 86 1012.8
20260510013916 16 186 1.6 6.4 0.00 0.00 0.00 86 1012.8
20260510013817 16 186 1.6 6.4 0.00 0.00 0.00 86 1012.8
20260510013716 16 187 1.6 9.7 0.00 0.00 0.00 86 1012.9
20260510013616 16 188 1.6 9.7 0.00 0.00 0.00 86 1012.8
20260510013517 16 188 1.6 9.7 0.00 0.00 0.00 86 1012.8
20260510013413 17 195 1.6 9.7 0.00 0.00 0.00 86 1012.8
20260510013313 17 197 3.2 9.7 0.00 0.00 0.00 86 1012.8
20260510013212 16 197 3.2 9.7 0.00 0.00 0.00 86 1012.8
20260510013113 17 197 3.2 9.7 0.00 0.00 0.00 86 1012.8
20260510013012 17 196 3.2 9.7 0.00 0.00 0.00 86 1012.7
20260510012913 17 198 3.2 9.7 0.00 0.00 0.00 86 1012.7
20260510012813 17 196 4.8 9.7 0.00 0.00 0.00 86 1012.7
20260510012712 17 201 4.8 9.7 0.00 0.00 0.00 86 1012.6
20260510012612 17 188 3.2 9.7 0.00 0.00 0.00 86 1012.6
20260510012513 17 178 3.2 9.7 0.00 0.00 0.00 86 1012.7
20260510012413 17 229 4.8 9.7 0.00 0.00 0.00 86 1012.6
20260510012313 17 168 4.8 11.3 0.00 0.00 0.00 86 1012.7
20260510012212 17 178 4.8 11.3 0.00 0.00 0.00 86 1012.7
20260510012114 17 178 4.8 11.3 0.00 0.00 0.00 86 1012.6
20260510012013 17 173 4.8 11.3 0.00 0.00 0.00 86 1012.7
20260510011913 17 183 4.8 11.3 0.00 0.00 0.00 86 1012.6
20260510011813 17 177 4.8 12.9 0.00 0.00 0.00 86 1012.5
20260510011713 17 155 4.8 12.9 0.00 0.00 0.00 86 1012.5
20260510011612 17 167 4.8 12.9 0.00 0.00 0.00 85 1012.6
20260510011514 17 198 4.8 12.9 0.00 0.00 0.00 85 1012.5
20260510011412 17 135 3.2 12.9 0.00 0.00 0.00 85 1012.4
20260510011312 17 178 3.2 12.9 0.00 0.00 0.00 85 1012.5
20260510011212 17 138 4.8 12.9 0.00 0.00 0.00 85 1012.5
20260510011113 17 168 4.8 12.9 0.00 0.00 0.00 85 1012.5
20260510011012 17 168 4.8 12.9 0.00 0.00 0.00 85 1012.4
20260510010913 17 181 3.2 12.9 0.00 0.00 0.00 85 1012.4
20260510010804 17 201 3.2 11.3 0.00 0.00 0.00 85 1012.3
20260510010704 17 157 3.2 11.3 0.00 0.00 0.00 85 1012.3
20260510010605 17 156 3.2 11.3 0.00 0.00 0.00 85 1012.3
20260510010504 17 190 3.2 11.3 0.00 0.00 0.00 85 1012.3
20260510010405 17 178 3.2 11.3 0.00 0.00 0.00 84 1012.2
20260510010305 17 178 3.2 11.3 0.00 0.00 0.00 84 1012.3
20260510010204 17 172 3.2 9.7 0.00 0.00 0.00 84 1012.2
20260510010104 17 165 3.2 9.7 0.00 0.00 0.00 84 1012.3
20260510010005 17 165 3.2 9.7 0.00 0.00 0.00 84 1012.3
20260510005905 17 167 3.2 9.7 0.00 0.00 0.00 84 1012.2
20260510005805 17 179 3.2 9.7 0.00 0.00 0.00 84 1012.2
20260510005704 17 179 3.2 9.7 0.00 0.00 0.00 84 1012.2
20260510005604 17 178 3.2 9.7 0.00 0.00 0.00 84 1012.1
20260510005505 17 178 3.2 9.7 0.00 0.00 0.00 84 1012.0
20260510005404 17 180 3.2 9.7 0.00 0.00 0.00 84 1012.0
20260510005306 17 156 3.2 9.7 0.00 0.00 0.00 84 1012.1
20260510005205 17 181 3.2 9.7 0.00 0.00 0.00 84 1012.1
20260510005104 17 171 3.2 9.7 0.00 0.00 0.00 84 1011.8
20260510005005 17 190 3.2 12.9 0.00 0.00 0.00 84 1012.0
20260510004904 17 177 3.2 12.9 0.00 0.00 0.00 84 1012.0
20260510004805 17 179 3.2 12.9 0.00 0.00 0.00 84 1011.8
20260510004705 17 164 3.2 12.9 0.00 0.00 0.00 83 1011.8
20260510004604 17 165 3.2 12.9 0.00 0.00 0.00 83 1011.8
20260510004505 17 163 3.2 12.9 0.00 0.00 0.00 83 1011.7
20260510004405 17 163 3.2 12.9 0.00 0.00 0.00 83 1011.8
20260510004305 17 163 3.2 12.9 0.00 0.00 0.00 83 1011.8
20260510004205 17 161 3.2 12.9 0.00 0.00 0.00 83 1011.8
20260510004104 17 160 3.2 12.9 0.00 0.00 0.00 83 1011.8
20260510004005 17 202 3.2 12.9 0.00 0.00 0.00 83 1011.8
20260510003905 17 148 3.2 8.0 0.00 0.00 0.00 83 1011.8
20260510003806 17 203 3.2 8.0 0.00 0.00 0.00 83 1011.7
20260510003705 17 213 3.2 8.0 0.00 0.00 0.00 83 1011.7
20260510003606 17 234 3.2 8.0 0.00 0.00 0.00 83 1011.8
20260510003500 17 196 3.2 8.0 0.00 0.00 0.00 83 1011.7
20260510003402 17 196 3.2 9.7 0.00 0.00 0.00 83 1011.7
20260510003300 17 198 3.2 9.7 0.00 0.00 0.00 82 1011.7
20260510003200 17 185 3.2 9.7 0.00 0.00 0.00 82 1011.7
20260510003101 17 184 3.2 9.7 0.00 0.00 0.00 82 1011.6
20260510003003 17 166 3.2 9.7 0.00 0.00 0.00 82 1011.6
20260510002901 17 169 3.2 9.7 0.00 0.00 0.00 82 1011.7
20260510002800 17 169 3.2 9.7 0.00 0.00 0.00 82 1011.5
20260510002700 17 179 3.2 9.7 0.00 0.00 0.00 82 1011.6
20260510002602 17 182 3.2 9.7 0.00 0.00 0.00 82 1011.6
20260510002501 17 182 3.2 9.7 0.00 0.00 0.00 82 1011.5
20260510002401 17 156 3.2 9.7 0.00 0.00 0.00 82 1011.5
20260510002201 18 186 3.2 8.0 0.00 0.00 0.00 81 1011.5
20260510002102 18 180 3.2 8.0 0.00 0.00 0.00 81 1011.5
20260510002001 18 208 3.2 8.0 0.00 0.00 0.00 81 1011.4
20260510001900 18 219 3.2 8.0 0.00 0.00 0.00 81 1011.5
20260510001802 18 169 3.2 8.0 0.00 0.00 0.00 81 1011.4
20260510001700 18 169 3.2 8.0 0.00 0.00 0.00 81 1011.4
20260510001601 18 169 3.2 8.0 0.00 0.00 0.00 81 1011.3
20260510001501 18 167 3.2 8.0 0.00 0.00 0.00 81 1011.4
20260510001402 18 167 3.2 8.0 0.00 0.00 0.00 81 1011.4
20260510001300 18 167 1.6 8.0 0.00 0.00 0.00 81 1011.4
20260510001201 18 167 1.6 8.0 0.00 0.00 0.00 81 1011.4
20260510001100 18 165 1.6 6.4 0.00 0.00 0.00 80 1011.5
20260510001001 18 165 1.6 6.4 0.00 0.00 0.00 80 1011.4
20260510000902 18 165 1.6 6.4 0.00 0.00 0.00 80 1011.4
20260510000800 18 179 1.6 6.4 0.00 0.00 0.00 80 1011.4
20260510000701 18 179 3.2 6.4 0.00 0.00 0.00 80 1011.3
20260510000602 18 179 3.2 6.4 0.00 0.00 0.00 80 1011.3
20260510000500 18 157 3.2 6.4 0.00 0.00 0.00 80 1011.3
20260510000359 18 159 3.2 6.4 0.00 0.00 0.00 80 1011.3
20260510000304 18 159 3.2 6.4 0.00 0.00 0.00 80 1011.3
20260510000155 18 158 3.2 8.0 0.00 0.00 0.00 80 1011.3
20260510000054 18 159 3.2 8.0 0.00 0.00 0.00 80 1011.3
20260509235956 18 158 3.2 8.0 0.00 0.00 0.00 80 1011.3
20260509235854 18 158 3.2 8.0 0.00 0.00 0.00 80 1011.3
20260509235753 18 158 3.2 8.0 0.00 0.00 0.00 80 1011.3
20260509235646 18 157 3.2 8.0 0.00 0.00 0.00 79 1011.3
20260509235547 18 157 3.2 8.0 0.00 0.00 0.00 79 1011.4
20260509235443 18 157 3.2 8.0 0.00 0.00 0.00 79 1011.3
20260509235342 18 157 3.2 8.0 0.00 0.00 0.00 79 1011.3
20260509235238 18 157 3.2 8.0 0.00 0.00 0.00 79 1011.3
20260509235137 18 161 3.2 6.4 0.00 0.00 0.00 79 1011.3
20260509235037 18 162 3.2 6.4 0.00 0.00 0.00 79 1011.4
20260509234937 18 162 3.2 8.0 0.00 0.00 0.00 79 1011.3
20260509234837 18 184 3.2 11.3 0.00 0.00 0.00 79 1011.3
20260509234736 18 184 3.2 11.3 0.00 0.00 0.00 79 1011.4
20260509234633 18 178 3.2 11.3 0.00 0.00 0.00 79 1011.4
20260509234532 18 178 3.2 11.3 0.00 0.00 0.00 79 1011.4
20260509234433 18 178 4.8 12.9 0.00 0.00 0.00 78 1011.4
20260509234332 18 181 3.2 14.5 0.00 0.00 0.00 78 1011.3
20260509234231 18 182 3.2 14.5 0.00 0.00 0.00 78 1011.3
20260509234131 18 182 3.2 14.5 0.00 0.00 0.00 78 1011.4
20260509234030 18 145 3.2 14.5 0.00 0.00 0.00 78 1011.3
20260509233932 18 153 3.2 14.5 0.00 0.00 0.00 78 1011.4
20260509233832 18 153 1.6 14.5 0.00 0.00 0.00 78 1011.3
20260509233728 18 150 1.6 14.5 0.00 0.00 0.00 78 1011.4
20260509233630 18 161 1.6 14.5 0.00 0.00 0.00 78 1011.3
20260509233527 19 162 1.6 14.5 0.00 0.00 0.00 78 1011.3
20260509233427 19 163 1.6 14.5 0.00 0.00 0.00 78 1011.3
20260509233328 19 174 1.6 17.7 0.00 0.00 0.00 78 1011.3
20260509233225 19 129 3.2 17.7 0.00 0.00 0.00 78 1011.3
20260509233125 19 174 3.2 17.7 0.00 0.00 0.00 78 1011.3
20260509233024 19 154 3.2 17.7 0.00 0.00 0.00 77 1011.3
20260509232923 19 138 3.2 17.7 0.00 0.00 0.00 77 1011.3
20260509232823 19 137 4.8 17.7 0.00 0.00 0.00 77 1011.3
20260509232722 19 173 4.8 17.7 0.00 0.00 0.00 77 1011.3
20260509232623 19 128 4.8 17.7 0.00 0.00 0.00 77 1011.3
20260509232523 19 177 4.8 17.7 0.00 0.00 0.00 77 1011.4
20260509232418 19 159 4.8 17.7 0.00 0.00 0.00 77 1011.3
20260509232318 19 150 4.8 12.9 0.00 0.00 0.00 77 1011.4
20260509232119 19 138 4.8 11.3 0.00 0.00 0.00 76 1011.4
20260509232016 19 158 4.8 11.3 0.00 0.00 0.00 76 1011.3
20260509231907 19 152 3.2 11.3 0.00 0.00 0.00 76 1011.3
20260509231807 19 134 3.2 11.3 0.00 0.00 0.00 76 1011.3
20260509231706 19 169 3.2 11.3 0.00 0.00 0.00 76 1011.3
20260509231606 19 189 3.2 11.3 0.00 0.00 0.00 76 1011.3
20260509231507 20 144 3.2 9.7 0.00 0.00 0.00 76 1011.2
20260509231402 20 139 3.2 9.7 0.00 0.00 0.00 75 1011.1
20260509231300 20 165 3.2 9.7 0.00 0.00 0.00 76 1011.2
20260509231201 20 167 3.2 9.7 0.00 0.00 0.00 76 1011.1
20260509231101 20 166 3.2 9.7 0.00 0.00 0.00 76 1011.1
20260509231000 20 167 3.2 9.7 0.00 0.00 0.00 76 1011.0
20260509230855 20 162 1.6 9.7 0.00 0.00 0.00 75 1011.1
20260509230754 20 165 1.6 9.7 0.00 0.00 0.00 75 1011.1
20260509230656 20 167 1.6 9.7 0.00 0.00 0.00 75 1011.1
20260509230554 20 150 1.6 9.7 0.00 0.00 0.00 75 1011.1
20260509230455 20 156 0.0 8.0 0.00 0.00 0.00 75 1011.2
20260509230344 20 186 0.0 8.0 0.00 0.00 0.00 75 1011.0
20260509230245 20 159 0.0 3.2 0.00 0.00 0.00 75 1011.0
20260509230144 20 159 0.0 3.2 0.00 0.00 0.00 75 1011.0
20260509230045 20 159 0.0 1.6 0.00 0.00 0.00 75 1011.1
20260509225943 20 159 0.0 0.0 0.00 0.00 0.00 75 1011.0
20260509225838 20 161 0.0 0.0 0.00 0.00 0.00 75 1011.1
20260509225736 20 182 0.0 0.0 0.00 0.00 0.00 74 1011.0
20260509225637 20 182 0.0 0.0 0.00 0.00 0.00 74 1011.1
20260509225537 20 146 0.0 0.0 0.00 0.00 0.00 74 1011.1
20260509225436 20 143 0.0 0.0 0.00 0.00 0.00 74 1011.0
20260509225334 20 166 0.0 0.0 0.00 0.00 0.00 74 1011.0
20260509225235 20 149 0.0 0.0 0.00 0.00 0.00 74 1011.0
20260509225132 20 160 0.0 0.0 0.00 0.00 0.00 74 1011.0
20260509225032 20 190 0.0 0.0 0.00 0.00 0.00 74 1011.0
20260509224931 20 142 0.0 0.0 0.00 0.00 0.00 74 1011.0
20260509224824 20 157 0.0 0.0 0.00 0.00 0.00 74 1011.0
20260509224720 20 161 0.0 0.0 0.00 0.00 0.00 74 1010.9
20260509224620 20 175 0.0 0.0 0.00 0.00 0.00 74 1011.0
20260509224522 20 160 0.0 0.0 0.00 0.00 0.00 74 1011.0
20260509224421 20 173 0.0 0.0 0.00 0.00 0.00 74 1010.9
20260509224315 20 144 0.0 0.0 0.00 0.00 0.00 74 1011.0
20260509224214 20 140 0.0 0.0 0.00 0.00 0.00 74 1010.9
20260509224115 20 140 0.0 0.0 0.00 0.00 0.00 74 1010.9
20260509224016 20 166 0.0 0.0 0.00 0.00 0.00 74 1010.9
20260509223915 20 142 0.0 0.0 0.00 0.00 0.00 74 1010.9
20260509223812 20 141 0.0 0.0 0.00 0.00 0.00 74 1010.8
20260509223713 20 142 0.0 0.0 0.00 0.00 0.00 74 1010.8
20260509223612 20 141 0.0 0.0 0.00 0.00 0.00 74 1010.9
20260509223511 20 140 0.0 0.0 0.00 0.00 0.00 74 1010.8
20260509223407 20 150 0.0 0.0 0.00 0.00 0.00 73 1010.7
20260509223256 20 195 0.0 0.0 0.00 0.00 0.00 73 1010.7
20260509223157 20 122 0.0 0.0 0.00 0.00 0.00 73 1010.8
20260509223058 20 192 0.0 0.0 0.00 0.00 0.00 73 1010.7
20260509222957 20 180 0.0 0.0 0.00 0.00 0.00 73 1010.8
20260509222857 20 175 0.0 0.0 0.00 0.00 0.00 73 1010.7
20260509222752 20 146 0.0 0.0 0.00 0.00 0.00 73 1010.6
20260509222651 20 147 0.0 0.0 0.00 0.00 0.00 73 1010.6
20260509222550 20 264 0.0 0.0 0.00 0.00 0.00 73 1010.7
20260509222451 20 206 0.0 0.0 0.00 0.00 0.00 73 1010.6
20260509222350 20 171 0.0 0.0 0.00 0.00 0.00 72 1010.6
20260509222248 20 205 0.0 0.0 0.00 0.00 0.00 72 1010.6
20260509222145 20 213 0.0 0.0 0.00 0.00 0.00 73 1010.6
20260509222045 20 215 0.0 0.0 0.00 0.00 0.00 73 1010.5
20260509221945 20 176 0.0 0.0 0.00 0.00 0.00 72 1010.6
20260509221845 20 246 0.0 0.0 0.00 0.00 0.00 72 1010.6
20260509221737 20 168 0.0 0.0 0.00 0.00 0.00 72 1010.6
20260509221635 20 171 0.0 0.0 0.00 0.00 0.00 72 1010.5
20260509221536 20 158 0.0 0.0 0.00 0.00 0.00 71 1010.5
20260509221434 20 174 0.0 0.0 0.00 0.00 0.00 72 1010.4
20260509221334 21 128 0.0 0.0 0.00 0.00 0.00 71 1010.6
20260509221232 21 156 0.0 0.0 0.00 0.00 0.00 71 1010.5
20260509221132 21 148 0.0 0.0 0.00 0.00 0.00 71 1010.5
20260509221030 21 153 0.0 0.0 0.00 0.00 0.00 71 1010.5
20260509220931 21 143 0.0 0.0 0.00 0.00 0.00 71 1010.5
20260509220829 21 146 0.0 0.0 0.00 0.00 0.00 71 1010.6
20260509220726 21 173 0.0 0.0 0.00 0.00 0.00 71 1010.6
20260509220627 21 162 0.0 0.0 0.00 0.00 0.00 71 1010.6
20260509220526 21 191 0.0 0.0 0.00 0.00 0.00 71 1010.6
20260509220424 21 217 0.0 0.0 0.00 0.00 0.00 70 1010.6
20260509220323 21 217 0.0 0.0 0.00 0.00 0.00 70 1010.5
20260509220216 21 199 0.0 0.0 0.00 0.00 0.00 70 1010.6
20260509220113 21 149 0.0 0.0 0.00 0.00 0.00 71 1010.6
20260509220013 21 129 0.0 0.0 0.00 0.00 0.00 70 1010.6
20260509215913 21 158 0.0 0.0 0.00 0.00 0.00 70 1010.6
20260509215812 21 182 0.0 0.0 0.00 0.00 0.00 70 1010.6
20260509215706 21 173 0.0 0.0 0.00 0.00 0.00 70 1010.6
20260509215608 21 231 0.0 0.0 0.00 0.00 0.00 70 1010.6
20260509215507 21 144 0.0 0.0 0.00 0.00 0.00 70 1010.6
20260509215407 21 128 0.0 0.0 0.00 0.00 0.00 70 1010.6
20260509215306 21 165 0.0 0.0 0.00 0.00 0.00 70 1010.6
20260509215201 21 161 0.0 0.0 0.00 0.00 0.00 70 1010.5
20260509215100 21 167 0.0 0.0 0.00 0.00 0.00 70 1010.5
20260509215002 21 147 0.0 0.0 0.00 0.00 0.00 71 1010.5
20260509214901 21 144 0.0 0.0 0.00 0.00 0.00 70 1010.5
20260509214800 21 141 0.0 0.0 0.00 0.00 0.00 70 1010.5
20260509214652 21 202 0.0 0.0 0.00 0.00 0.00 70 1010.5
20260509214552 21 153 0.0 0.0 0.00 0.00 0.00 70 1010.5
20260509214453 21 161 0.0 0.0 0.00 0.00 0.00 70 1010.5
20260509214352 21 167 0.0 0.0 0.00 0.00 0.00 70 1010.5
20260509214251 21 139 0.0 0.0 0.00 0.00 0.00 71 1010.5
20260509214144 21 139 0.0 0.0 0.00 0.00 0.00 70 1010.5
20260509214044 21 134 0.0 0.0 0.00 0.00 0.00 70 1010.6
20260509213945 21 207 0.0 0.0 0.00 0.00 0.00 70 1010.5
20260509213843 21 193 0.0 0.0 0.00 0.00 0.00 70 1010.5
20260509213744 21 158 0.0 0.0 0.00 0.00 0.00 70 1010.6
20260509213639 21 136 0.0 0.0 0.00 0.00 0.00 69 1010.6
20260509213540 21 153 0.0 0.0 0.00 0.00 0.00 70 1010.6
20260509213440 21 169 0.0 0.0 0.00 0.00 0.00 70 1010.5
20260509213341 21 162 0.0 0.0 0.00 0.00 0.00 69 1010.5
20260509213239 21 192 0.0 0.0 0.00 0.00 0.00 70 1010.5
20260509213128 21 142 0.0 0.0 0.00 0.00 0.00 70 1010.6
20260509213028 21 175 0.0 0.0 0.00 0.00 0.00 69 1010.6
20260509212928 21 155 0.0 0.0 0.00 0.00 0.00 68 1010.6
20260509212830 21 146 0.0 0.0 0.00 0.00 0.00 69 1010.6
20260509212728 21 184 0.0 0.0 0.00 0.00 0.00 69 1010.5
20260509212624 21 148 0.0 0.0 0.00 0.00 0.00 69 1010.5
20260509212522 21 148 0.0 0.0 0.00 0.00 0.00 68 1010.4
20260509212423 21 150 0.0 0.0 0.00 0.00 0.00 69 1010.2
20260509212321 21 207 0.0 0.0 0.00 0.00 0.00 69 1010.2
20260509212223 21 178 0.0 0.0 0.00 0.00 0.00 69 1010.4
20260509212121 21 160 0.0 0.0 0.00 0.00 0.00 68 1010.2
20260509212022 21 145 0.0 0.0 0.00 0.00 0.00 67 1010.4
20260509211918 21 159 0.0 0.0 0.00 0.00 0.00 68 1010.2
20260509211819 21 150 0.0 0.0 0.00 0.00 0.00 67 1010.2
20260509211717 21 140 0.0 0.0 0.00 0.00 0.00 67 1010.5
20260509211606 21 157 0.0 0.0 0.00 0.00 0.00 66 1010.4
20260509211507 21 138 0.0 0.0 0.00 0.00 0.00 66 1010.5
20260509211407 21 132 0.0 0.0 0.00 0.00 0.00 66 1010.5
20260509211307 21 179 0.0 0.0 0.00 0.00 0.00 65 1010.4
20260509211206 22 202 0.0 0.0 0.00 0.00 0.00 66 1010.2
20260509211102 22 180 0.0 0.0 0.00 0.00 0.00 66 1010.1
20260509211003 22 141 0.0 0.0 0.00 0.00 0.00 66 1010.1
20260509210902 22 155 0.0 0.0 0.00 0.00 0.00 65 1010.2
20260509210802 22 155 0.0 0.0 0.00 0.00 0.00 65 1010.2
20260509210701 22 154 0.0 0.0 0.00 0.00 0.00 65 1010.2
20260509210601 22 153 0.0 0.0 0.00 0.00 0.00 65 1010.2
20260509210459 22 147 0.0 0.0 0.00 0.00 0.00 65 1010.2
20260509210356 22 153 0.0 0.0 0.00 0.00 0.00 64 1010.2
20260509210257 22 194 0.0 0.0 0.00 0.00 0.00 63 1010.4
20260509210154 22 177 0.0 0.0 0.00 0.00 0.00 64 1010.4
20260509210047 22 190 0.0 0.0 0.00 0.00 0.00 64 1010.4
20260509205944 22 140 0.0 0.0 0.00 0.00 0.00 65 1010.4
20260509205844 22 135 0.0 0.0 0.00 0.00 0.00 65 1010.2
20260509205744 22 161 0.0 0.0 0.00 0.00 0.00 66 1010.2
20260509205644 22 138 0.0 0.0 0.00 0.00 0.00 64 1010.2
20260509205545 22 166 0.0 0.0 0.00 0.00 0.00 66 1010.2
20260509205442 22 153 0.0 0.0 0.00 0.00 0.00 65 1010.2
20260509205344 22 162 0.0 0.0 0.00 0.00 0.00 65 1010.2
20260509205241 22 140 0.0 0.0 0.00 0.00 0.00 65 1010.2
20260509205138 22 187 0.0 0.0 0.00 0.00 0.00 64 1010.2
20260509205035 22 166 0.0 0.0 0.00 0.00 0.00 64 1010.4
20260509204836 22 180 0.0 0.0 0.00 0.00 0.00 64 1010.1
20260509204736 22 176 0.0 0.0 0.00 0.00 0.00 64 1010.1
20260509204632 22 97 0.0 0.0 0.00 0.00 0.00 64 1010.2
20260509204525 22 149 0.0 0.0 0.00 0.00 0.00 64 1010.1
20260509204423 22 154 0.0 0.0 0.00 0.00 0.00 64 1010.1
20260509204323 22 162 0.0 0.0 0.00 0.00 0.00 64 1010.1
20260509204223 22 133 0.0 0.0 0.00 0.00 0.00 64 1010.1
20260509204123 22 179 0.0 0.0 0.00 0.00 0.00 63 1010.0
20260509204022 22 182 0.0 0.0 0.00 0.00 0.00 65 1010.0
20260509203921 22 93 0.0 0.0 0.00 0.00 0.00 64 1010.0
20260509203821 22 178 0.0 0.0 0.00 0.00 0.00 64 1010.0
20260509203718 22 186 0.0 0.0 0.00 0.00 0.00 63 1010.1
20260509203617 22 146 0.0 0.0 0.00 0.00 0.00 64 1010.1
20260509203511 22 51 0.0 0.0 0.00 0.00 0.00 64 1010.1
20260509203410 22 119 0.0 0.0 0.00 0.00 0.00 64 1010.0
20260509203311 22 161 0.0 0.0 0.00 0.00 0.00 63 1009.9
20260509203211 22 170 0.0 0.0 0.00 0.00 0.00 63 1009.9
20260509203111 22 140 0.0 0.0 0.00 0.00 0.00 65 1010.0
20260509203000 22 150 0.0 0.0 0.00 0.00 0.00 64 1009.9
20260509202901 22 121 1.6 9.7 0.00 0.00 0.00 65 1010.0
20260509202801 22 144 1.6 9.7 0.00 0.00 0.00 64 1010.0
20260509202700 22 9 3.2 14.5 0.00 0.00 0.00 66 1010.0
20260509202600 22 35 3.2 14.5 0.00 0.00 0.00 65 1010.1
20260509202458 22 355 4.8 16.1 0.00 0.00 0.00 67 1010.1
20260509202358 22 21 4.8 16.1 0.00 0.00 0.00 65 1010.1
20260509202259 22 124 4.8 16.1 0.00 0.00 0.00 64 1010.1
20260509202157 22 160 4.8 16.1 0.00 0.00 0.00 66 1010.0
20260509202055 22 150 4.8 16.1 0.00 0.00 0.00 66 1010.1
20260509201950 22 145 4.8 16.1 0.00 0.00 0.00 65 1010.0
20260509201851 22 155 4.8 16.1 0.00 0.00 0.00 66 1010.1
20260509201750 22 138 3.2 16.1 0.00 0.00 0.00 65 1010.1
20260509201650 22 148 3.2 16.1 0.00 0.00 0.00 65 1010.2
20260509201549 22 144 1.6 16.1 0.00 0.00 0.00 66 1010.2
20260509201439 22 150 1.6 11.3 0.00 0.00 0.00 65 1010.2
20260509201340 22 192 0.0 11.3 0.00 0.00 0.00 67 1010.2
20260509201241 22 132 0.0 4.8 0.00 0.00 0.00 66 1010.2
20260509201141 22 145 0.0 0.0 0.00 0.00 0.00 66 1010.2
20260509201039 22 127 0.0 0.0 0.00 0.00 0.00 65 1010.4
20260509200935 22 132 0.0 0.0 0.00 0.00 0.00 66 1010.4
20260509200832 22 167 0.0 0.0 0.00 0.00 0.00 67 1010.4
20260509200732 22 163 0.0 0.0 0.00 0.00 0.00 64 1010.4
20260509200632 22 131 0.0 0.0 0.00 0.00 0.00 64 1010.4
20260509200533 22 105 0.0 0.0 0.00 0.00 0.00 65 1010.4
20260509200428 22 160 0.0 0.0 0.00 0.00 0.00 64 1010.4
20260509200329 22 140 0.0 0.0 0.00 0.00 0.00 65 1010.4
20260509200227 22 114 0.0 0.0 0.00 0.00 0.00 65 1010.2
20260509200129 22 175 0.0 0.0 0.00 0.00 0.00 65 1010.4
20260509200026 22 138 0.0 0.0 0.00 0.00 0.00 64 1010.4
20260509195917 22 200 0.0 0.0 0.00 0.00 0.00 64 1010.4
20260509195815 22 180 0.0 0.0 0.00 0.00 0.00 65 1010.4
20260509195716 22 144 0.0 0.0 0.00 0.00 0.00 66 1010.4
20260509195618 22 133 0.0 0.0 0.00 0.00 0.00 65 1010.5
20260509195516 22 115 0.0 0.0 0.00 0.00 0.00 66 1010.4
20260509195428 22 98 0.0 0.0 0.00 0.00 0.00 65 1010.4
20260509195310 22 198 0.0 0.0 0.00 0.00 0.00 64 1010.2
20260509195211 22 193 0.0 0.0 0.00 0.00 0.00 66 1010.4
20260509195111 22 184 0.0 0.0 0.00 0.00 0.00 65 1010.2
20260509195010 22 72 0.0 0.0 0.00 0.00 0.00 65 1010.2
20260509194905 22 142 0.0 0.0 0.00 0.00 0.00 65 1010.2
20260509194804 22 179 0.0 0.0 0.00 0.00 0.00 65 1010.4
20260509194704 22 162 0.0 0.0 0.00 0.00 0.00 65 1010.5
20260509194604 22 155 0.0 0.0 0.00 0.00 0.00 65 1010.5
20260509194504 22 180 0.0 0.0 0.00 0.00 0.00 64 1010.5
20260509194354 22 159 0.0 0.0 0.00 0.00 0.00 64 1010.5
20260509194254 22 146 0.0 0.0 0.00 0.00 0.00 65 1010.5
20260509194155 22 138 0.0 0.0 0.00 0.00 0.00 66 1010.4
20260509194055 22 119 0.0 0.0 0.00 0.00 0.00 66 1010.5
20260509193955 22 134 0.0 0.0 0.00 0.00 0.00 65 1010.5
20260509193849 22 137 0.0 0.0 0.00 0.00 0.00 64 1010.5
20260509193750 22 111 0.0 0.0 0.00 0.00 0.00 64 1010.5
20260509193651 22 146 0.0 0.0 0.00 0.00 0.00 64 1010.5
20260509193550 22 167 0.0 0.0 0.00 0.00 0.00 65 1010.5
20260509193448 22 142 0.0 0.0 0.00 0.00 0.00 65 1010.5
20260509193345 22 188 0.0 0.0 0.00 0.00 0.00 67 1010.5
20260509193247 22 142 0.0 0.0 0.00 0.00 0.00 66 1010.5
20260509193145 22 144 0.0 0.0 0.00 0.00 0.00 65 1010.5
20260509193044 22 170 0.0 0.0 0.00 0.00 0.00 67 1010.5
20260509192942 22 96 0.0 0.0 0.00 0.00 0.00 66 1010.5
20260509192836 22 148 0.0 0.0 0.00 0.00 0.00 66 1010.5
20260509192737 22 180 0.0 0.0 0.00 0.00 0.00 65 1010.5
20260509192636 22 163 0.0 0.0 0.00 0.00 0.00 64 1010.5
20260509192534 22 174 0.0 0.0 0.00 0.00 0.00 64 1010.5
20260509192433 22 123 0.0 0.0 0.00 0.00 0.00 63 1010.2
20260509192327 22 141 0.0 0.0 0.00 0.00 0.00 63 1010.5
20260509192226 22 126 0.0 0.0 0.00 0.00 0.00 64 1010.5
20260509192126 22 155 0.0 0.0 0.00 0.00 0.00 65 1010.5
20260509192026 22 130 0.0 0.0 0.00 0.00 0.00 66 1010.6
20260509191927 22 134 0.0 0.0 0.00 0.00 0.00 66 1010.6
20260509191824 22 129 0.0 0.0 0.00 0.00 0.00 66 1010.5
20260509191725 22 103 0.0 0.0 0.00 0.00 0.00 66 1010.6
20260509191621 22 147 0.0 0.0 0.00 0.00 0.00 65 1010.6
20260509191523 22 117 0.0 0.0 0.00 0.00 0.00 64 1010.5
20260509191420 22 150 0.0 0.0 0.00 0.00 0.00 64 1010.5
20260509191311 22 153 0.0 0.0 0.00 0.00 0.00 65 1010.7
20260509191212 22 128 0.0 0.0 0.00 0.00 0.00 64 1010.6
20260509191111 22 132 0.0 0.0 0.00 0.00 0.00 65 1010.6
20260509191010 22 106 0.0 0.0 0.00 0.00 0.00 65 1010.7
20260509190910 22 143 0.0 0.0 0.00 0.00 0.00 66 1010.7
20260509190803 22 184 0.0 0.0 0.00 0.00 0.00 65 1010.7
20260509190705 22 212 0.0 0.0 0.00 0.00 0.00 66 1010.6
20260509190605 22 146 0.0 0.0 0.00 0.00 0.00 66 1010.7
20260509190505 22 153 0.0 0.0 0.00 0.00 0.00 65 1010.7
20260509190405 22 163 0.0 0.0 0.00 0.00 0.00 67 1010.7
20260509190302 21 155 0.0 0.0 0.00 0.00 0.00 66 1010.7
20260509190201 21 153 0.0 0.0 0.00 0.00 0.00 66 1010.6
20260509190000 21 161 0.0 0.0 0.00 0.00 0.00 66 1010.6
20260509185858 21 205 0.0 0.0 0.00 0.00 0.00 66 1010.7
20260509185750 21 146 0.0 0.0 0.00 0.00 0.00 65 1010.7
20260509185649 21 119 0.0 0.0 0.00 0.00 0.00 65 1010.7
20260509185550 21 223 0.0 0.0 0.00 0.00 0.00 66 1010.7
20260509185451 21 161 0.0 0.0 0.00 0.00 0.00 66 1010.7
20260509185349 21 165 0.0 0.0 0.00 0.00 0.00 65 1010.6
20260509185242 21 129 0.0 0.0 0.00 0.00 0.00 65 1010.7
20260509185142 21 142 0.0 0.0 0.00 0.00 0.00 65 1010.7
20260509185043 21 67 0.0 0.0 0.00 0.00 0.00 66 1010.7
20260509184942 21 159 0.0 0.0 0.00 0.00 0.00 66 1010.6
20260509184843 21 123 0.0 0.0 0.00 0.00 0.00 65 1010.7
20260509184737 21 172 0.0 0.0 0.00 0.00 0.00 66 1010.7
20260509184636 21 183 0.0 0.0 0.00 0.00 0.00 67 1010.7
20260509184537 21 192 0.0 0.0 0.00 0.00 0.00 65 1010.6
20260509184437 21 245 0.0 0.0 0.00 0.00 0.00 66 1010.7
20260509184337 21 205 0.0 0.0 0.00 0.00 0.00 66 1010.6
20260509184231 21 159 0.0 0.0 0.00 0.00 0.00 66 1010.6
20260509184131 21 209 0.0 0.0 0.00 0.00 0.00 65 1010.6
20260509184031 21 116 0.0 0.0 0.00 0.00 0.00 65 1010.6
20260509183929 21 166 0.0 0.0 0.00 0.00 0.00 65 1010.6
20260509183826 21 134 0.0 0.0 0.00 0.00 0.00 65 1010.6
20260509183725 21 129 0.0 0.0 0.00 0.00 0.00 65 1010.7
20260509183624 21 133 0.0 0.0 0.00 0.00 0.00 64 1010.6
20260509183524 21 154 0.0 0.0 0.00 0.00 0.00 66 1010.6
20260509183423 21 183 0.0 0.0 0.00 0.00 0.00 65 1010.6
20260509183321 21 145 0.0 0.0 0.00 0.00 0.00 66 1010.6
20260509183215 21 157 0.0 0.0 0.00 0.00 0.00 64 1010.5
20260509183114 21 278 0.0 0.0 0.00 0.00 0.00 63 1010.6
20260509183015 21 181 0.0 0.0 0.00 0.00 0.00 65 1010.6
20260509182914 21 130 0.0 0.0 0.00 0.00 0.00 66 1010.5
20260509182815 21 160 0.0 0.0 0.00 0.00 0.00 67 1010.6
20260509182703 21 92 0.0 0.0 0.00 0.00 0.00 66 1010.6
20260509182605 21 150 0.0 0.0 0.00 0.00 0.00 67 1010.6
20260509182505 21 143 0.0 0.0 0.00 0.00 0.00 65 1010.7
20260509182404 21 148 0.0 0.0 0.00 0.00 0.00 66 1010.7
20260509182306 21 169 0.0 0.0 0.00 0.00 0.00 65 1010.7
20260509182201 21 140 0.0 0.0 0.00 0.00 0.00 65 1010.6
20260509182102 21 153 0.0 0.0 0.00 0.00 0.00 64 1010.6
20260509182002 21 159 0.0 0.0 0.00 0.00 0.00 64 1010.7
20260509181901 21 138 0.0 0.0 0.00 0.00 0.00 63 1010.6
20260509181759 21 188 0.0 0.0 0.00 0.00 0.00 65 1010.7
20260509181655 21 306 0.0 0.0 0.00 0.00 0.00 64 1010.8
20260509181556 21 290 0.0 0.0 0.00 0.00 0.00 67 1010.7
20260509181454 21 86 0.0 0.0 0.00 0.00 0.00 65 1010.7
20260509181355 21 133 0.0 0.0 0.00 0.00 0.00 65 1010.8
20260509181253 21 140 0.0 0.0 0.00 0.00 0.00 66 1010.7
20260509181142 21 159 0.0 0.0 0.00 0.00 0.00 66 1010.8
20260509181042 21 176 0.0 0.0 0.00 0.00 0.00 64 1010.8
20260509180942 21 121 0.0 0.0 0.00 0.00 0.00 65 1010.8
20260509180841 21 134 0.0 0.0 0.00 0.00 0.00 65 1010.9
20260509180743 21 155 0.0 0.0 0.00 0.00 0.00 67 1010.9
20260509180638 21 158 0.0 0.0 0.00 0.00 0.00 67 1011.0
20260509180537 21 110 0.0 0.0 0.00 0.00 0.00 66 1011.0
20260509180438 21 124 0.0 0.0 0.00 0.00 0.00 66 1011.0
20260509180338 21 136 0.0 0.0 0.00 0.00 0.00 67 1011.0
20260509180236 21 177 0.0 0.0 0.00 0.00 0.00 66 1011.1
20260509180133 21 178 0.0 0.0 0.00 0.00 0.00 68 1011.0
20260509180030 21 351 0.0 0.0 0.00 0.00 0.00 67 1011.0
20260509175930 21 128 0.0 0.0 0.00 0.00 0.00 67 1011.1
20260509175831 21 215 0.0 0.0 0.00 0.00 0.00 67 1011.0
20260509175731 21 250 0.0 0.0 0.00 0.00 0.00 68 1011.2
20260509175622 20 171 0.0 0.0 0.00 0.00 0.00 66 1011.2
20260509175522 20 155 0.0 0.0 0.00 0.00 0.00 67 1011.1
20260509175423 20 138 0.0 0.0 0.00 0.00 0.00 67 1011.2
20260509175321 20 159 0.0 0.0 0.00 0.00 0.00 68 1011.2
20260509175220 20 139 0.0 0.0 0.00 0.00 0.00 66 1011.2
20260509175120 20 136 0.0 0.0 0.00 0.00 0.00 66 1011.3
20260509175018 20 180 0.0 0.0 0.00 0.00 0.00 65 1011.2
20260509174918 20 173 0.0 0.0 0.00 0.00 0.00 65 1011.3
20260509174817 20 167 0.0 0.0 0.00 0.00 0.00 64 1011.2
20260509174714 20 171 0.0 0.0 0.00 0.00 0.00 64 1011.2
20260509174608 20 171 0.0 0.0 0.00 0.00 0.00 65 1011.3
20260509174509 20 171 0.0 0.0 0.00 0.00 0.00 64 1011.3
20260509174409 20 171 0.0 0.0 0.00 0.00 0.00 67 1011.4
20260509174309 20 153 0.0 0.0 0.00 0.00 0.00 65 1011.4
20260509174209 20 329 0.0 0.0 0.00 0.00 0.00 65 1011.3
20260509174101 20 305 0.0 0.0 0.00 0.00 0.00 66 1011.3
20260509174000 20 206 0.0 0.0 0.00 0.00 0.00 66 1011.3
20260509173901 20 210 0.0 0.0 0.00 0.00 0.00 66 1011.4
20260509173800 20 213 0.0 0.0 0.00 0.00 0.00 65 1011.3
20260509173658 20 216 0.0 0.0 0.00 0.00 0.00 67 1011.4
20260509173554 20 276 0.0 0.0 0.00 0.00 0.00 66 1011.3
20260509173452 20 276 0.0 0.0 0.00 0.00 0.00 65 1011.3
20260509173352 20 312 0.0 0.0 0.00 0.00 0.00 65 1011.3
20260509173255 21 326 0.0 0.0 0.00 0.00 0.00 65 1011.4
20260509173153 21 280 0.0 0.0 0.00 0.00 0.00 66 1011.4
20260509173048 21 130 0.0 0.0 0.00 0.00 0.00 66 1011.3
20260509172947 20 244 0.0 0.0 0.00 0.00 0.00 67 1011.4
20260509172847 20 183 0.0 0.0 0.00 0.00 0.00 67 1011.3
20260509172746 20 178 0.0 0.0 0.00 0.00 0.00 68 1011.4
20260509172647 20 50 0.0 0.0 0.00 0.00 0.00 69 1011.2
20260509172543 20 113 0.0 0.0 0.00 0.00 0.00 68 1011.2
20260509172440 20 114 0.0 0.0 0.00 0.00 0.00 68 1011.3
20260509172340 20 114 0.0 0.0 0.00 0.00 0.00 67 1011.2
20260509172239 20 311 0.0 0.0 0.00 0.00 0.00 67 1011.2
20260509172136 20 310 0.0 0.0 0.00 0.00 0.00 67 1011.2
20260509172034 20 317 0.0 0.0 0.00 0.00 0.00 67 1011.2
20260509171934 20 271 0.0 0.0 0.00 0.00 0.00 70 1011.3
20260509171835 20 178 0.0 0.0 0.00 0.00 0.00 68 1011.3
20260509171731 20 150 0.0 0.0 0.00 0.00 0.00 67 1011.3
20260509171632 20 139 0.0 0.0 0.00 0.00 0.00 70 1011.4
20260509171532 20 152 0.0 0.0 0.00 0.00 0.00 70 1011.3
20260509171433 20 148 0.0 0.0 0.00 0.00 0.00 70 1011.3
20260509171331 20 150 0.0 0.0 0.00 0.00 0.00 69 1011.3
20260509171229 20 149 0.0 0.0 0.00 0.00 0.00 70 1011.4
20260509171131 20 147 0.0 0.0 0.00 0.00 0.00 71 1011.3
20260509171028 20 86 0.0 0.0 0.00 0.00 0.00 72 1011.4
20260509170925 19 128 0.0 0.0 0.00 0.00 0.00 72 1011.4
20260509170826 19 168 0.0 0.0 0.00 0.00 0.00 71 1011.4
20260509170723 19 169 0.0 0.0 0.00 0.00 0.00 71 1011.5
20260509170624 19 164 0.0 0.0 0.00 0.00 0.00 68 1011.5
20260509170523 19 139 0.0 0.0 0.00 0.00 0.00 68 1011.6
20260509170419 20 152 0.0 0.0 0.00 0.00 0.00 68 1011.5
20260509170319 20 77 0.0 0.0 0.00 0.00 0.00 68 1011.4
20260509170221 20 134 0.0 0.0 0.00 0.00 0.00 68 1011.4
20260509170121 20 209 0.0 0.0 0.00 0.00 0.00 68 1011.4
20260509170020 20 159 0.0 0.0 0.00 0.00 0.00 68 1011.4
20260509165919 20 167 0.0 0.0 0.00 0.00 0.00 68 1011.4
20260509165817 20 133 0.0 0.0 0.00 0.00 0.00 69 1011.4
20260509165719 20 172 0.0 0.0 0.00 0.00 0.00 70 1011.4
20260509165618 20 158 0.0 0.0 0.00 0.00 0.00 69 1011.3
20260509165518 20 188 0.0 0.0 0.00 0.00 0.00 69 1011.3
20260509165419 20 135 0.0 0.0 0.00 0.00 0.00 69 1011.5
20260509165319 20 142 0.0 0.0 0.00 0.00 0.00 70 1011.5
20260509165218 20 53 0.0 0.0 0.00 0.00 0.00 68 1011.4
20260509165119 20 77 0.0 0.0 0.00 0.00 0.00 70 1011.5
20260509165016 20 77 0.0 0.0 0.00 0.00 0.00 69 1011.5
20260509164916 20 175 0.0 0.0 0.00 0.00 0.00 70 1011.5
20260509164815 20 175 0.0 0.0 0.00 0.00 0.00 68 1011.6
20260509164715 19 175 0.0 0.0 0.00 0.00 0.00 68 1011.6
20260509164616 20 195 0.0 0.0 0.00 0.00 0.00 69 1011.6
20260509164514 20 140 0.0 0.0 0.00 0.00 0.00 69 1011.6
20260509164413 19 150 0.0 0.0 0.00 0.00 0.00 70 1011.6
20260509164313 19 139 0.0 0.0 0.00 0.00 0.00 69 1011.7
20260509164211 20 124 0.0 0.0 0.00 0.00 0.00 68 1011.7
20260509164112 20 157 0.0 0.0 0.00 0.00 0.00 69 1011.6
20260509164012 20 164 0.0 0.0 0.00 0.00 0.00 69 1011.7
20260509163913 20 170 0.0 0.0 0.00 0.00 0.00 69 1011.7
20260509163812 20 178 0.0 0.0 0.00 0.00 0.00 68 1011.7
20260509163712 20 171 0.0 0.0 0.00 0.00 0.00 68 1011.8
20260509163607 20 193 0.0 0.0 0.00 0.00 0.00 67 1011.8
20260509163505 20 128 0.0 0.0 0.00 0.00 0.00 68 1011.8
20260509163407 20 134 0.0 0.0 0.00 0.00 0.00 69 1011.7
20260509163305 20 173 0.0 0.0 0.00 0.00 0.00 68 1011.8
20260509163206 20 184 0.0 0.0 0.00 0.00 0.00 68 1011.8
20260509163101 20 182 0.0 0.0 0.00 0.00 0.00 68 1012.0
20260509163002 20 226 0.0 0.0 0.00 0.00 0.00 70 1011.8
20260509162902 19 225 0.0 0.0 0.00 0.00 0.00 71 1012.0
20260509162803 19 167 0.0 0.0 0.00 0.00 0.00 69 1012.0
20260509162701 19 138 0.0 0.0 0.00 0.00 0.00 68 1012.0
20260509162557 19 273 0.0 0.0 0.00 0.00 0.00 68 1012.0
20260509162459 19 221 0.0 0.0 0.00 0.00 0.00 68 1012.0
20260509162358 19 214 0.0 0.0 0.00 0.00 0.00 69 1012.1
20260509162257 19 283 0.0 0.0 0.00 0.00 0.00 69 1012.0
20260509162157 19 119 0.0 0.0 0.00 0.00 0.00 70 1012.0
20260509162059 19 119 0.0 0.0 0.00 0.00 0.00 72 1012.0
20260509161956 19 344 0.0 0.0 0.00 0.00 0.00 71 1012.0
20260509161853 19 315 0.0 0.0 0.00 0.00 0.00 71 1012.1
20260509161754 19 154 0.0 0.0 0.00 0.00 0.00 70 1012.1
20260509161654 19 113 0.0 1.6 0.00 0.00 0.00 70 1012.0
20260509161551 19 205 0.0 8.0 0.00 0.00 0.00 71 1012.1
20260509161451 18 119 0.0 8.0 0.00 0.00 0.00 70 1012.0
20260509161352 18 187 1.6 8.0 0.00 0.00 0.00 69 1012.0
20260509161253 18 167 1.6 9.7 0.00 0.00 0.00 70 1012.0
20260509161152 18 192 1.6 11.3 0.00 0.00 0.00 70 1012.0
20260509161052 18 145 3.2 11.3 0.00 0.00 0.00 71 1012.0
20260509160951 18 144 3.2 14.5 0.00 0.00 0.00 70 1012.1
20260509160851 18 124 3.2 14.5 0.00 0.00 0.00 72 1012.0
20260509160751 18 66 4.8 14.5 0.00 0.00 0.00 70 1012.1
20260509160653 18 163 4.8 14.5 0.00 0.00 0.00 70 1012.2
20260509160550 18 105 4.8 14.5 0.00 0.00 0.00 71 1012.2
20260509160451 18 175 4.8 14.5 0.00 0.00 0.00 70 1012.2
20260509160350 18 284 4.8 14.5 0.00 0.00 0.00 71 1012.3
20260509160250 18 168 4.8 14.5 0.00 0.00 0.00 72 1012.2
20260509160151 18 182 4.8 14.5 0.00 0.00 0.00 71 1012.3
20260509160049 18 178 4.8 14.5 0.00 0.00 0.00 73 1012.3
20260509155948 18 348 4.8 11.3 0.00 0.00 0.00 73 1012.3
20260509155847 18 327 4.8 11.3 0.00 0.00 0.00 72 1012.3
20260509155748 18 178 4.8 11.3 0.00 0.00 0.00 73 1012.3
20260509155648 18 236 4.8 14.5 0.00 0.00 0.00 75 1012.3
20260509155549 18 105 4.8 14.5 0.00 0.00 0.00 74 1012.2
20260509155447 18 161 4.8 14.5 0.00 0.00 0.00 74 1012.3
20260509155348 18 245 4.8 14.5 0.00 0.00 0.00 73 1012.3
20260509155247 18 187 4.8 14.5 0.00 0.00 0.00 74 1012.3
20260509155148 18 148 4.8 14.5 0.00 0.00 0.00 74 1012.3
20260509155049 18 145 4.8 14.5 0.00 0.00 0.00 74 1012.3
20260509155001 18 153 4.8 14.5 0.00 0.00 0.00 74 1012.4
20260509154849 18 134 4.8 14.5 0.00 0.00 0.00 74 1012.3
20260509154747 18 177 4.8 14.5 0.00 0.00 0.00 73 1012.3
20260509154646 18 130 4.8 12.9 0.00 0.00 0.00 73 1012.4
20260509154544 18 146 4.8 12.9 0.00 0.00 0.00 73 1012.3
20260509154445 18 24 3.2 11.3 0.00 0.00 0.00 74 1012.3
20260509154343 18 141 3.2 11.3 0.00 0.00 0.00 74 1012.2
20260509154243 18 153 3.2 11.3 0.00 0.00 0.00 74 1012.1
20260509154143 18 154 3.2 11.3 0.00 0.00 0.00 74 1012.0
20260509154044 18 128 3.2 11.3 0.00 0.00 0.00 73 1012.1
20260509153935 18 190 3.2 11.3 0.00 0.00 0.00 74 1012.1
20260509153836 18 132 3.2 11.3 0.00 0.00 0.00 75 1012.0
20260509153736 18 137 3.2 11.3 0.00 0.00 0.00 75 1012.1
20260509153635 18 134 3.2 11.3 0.00 0.00 0.00 75 1012.0
20260509153535 18 126 3.2 11.3 0.00 0.00 0.00 74 1012.1
20260509153436 18 135 3.2 11.3 0.00 0.00 0.00 75 1012.0
20260509153336 18 152 3.2 11.3 0.00 0.00 0.00 75 1012.0
20260509153235 17 217 3.2 16.1 0.00 0.00 0.00 75 1012.1
20260509153136 17 155 3.2 16.1 0.00 0.00 0.00 75 1012.1
20260509153037 17 0 3.2 16.1 0.00 0.00 0.00 76 1012.0
20260509152936 17 17 4.8 16.1 0.00 0.00 0.00 75 1012.0
20260509152835 17 5 4.8 16.1 0.00 0.00 0.00 76 1012.0
20260509152736 17 0 4.8 16.1 0.00 0.00 0.00 76 1012.2
20260509152637 17 109 4.8 16.1 0.00 0.00 0.00 76 1012.1
20260509152536 17 188 4.8 16.1 0.00 0.00 0.00 74 1012.1
20260509152435 17 304 4.8 16.1 0.00 0.00 0.00 74 1012.2
20260509152335 17 168 4.8 16.1 0.00 0.00 0.00 75 1012.2
20260509152235 17 178 4.8 11.3 0.00 0.00 0.00 75 1012.2
20260509152135 18 148 4.8 11.3 0.00 0.00 0.00 75 1012.1
20260509152036 18 108 4.8 11.3 0.00 0.00 0.00 74 1012.2
20260509151936 18 5 4.8 11.3 0.00 0.00 0.00 75 1012.2
20260509151837 18 139 4.8 11.3 0.00 0.00 0.00 75 1012.1
20260509151735 18 194 4.8 11.3 0.00 0.00 0.00 77 1012.2
20260509151635 17 173 4.8 19.3 0.00 0.00 0.00 76 1012.1
20260509151535 17 174 4.8 19.3 0.00 0.00 0.00 75 1012.1
20260509151437 17 167 4.8 19.3 0.00 0.00 0.00 75 1012.2
20260509151336 17 134 6.4 19.3 0.00 0.00 0.00 75 1012.1
20260509151236 17 184 6.4 19.3 0.00 0.00 0.00 75 1012.0
20260509151135 17 177 6.4 19.3 0.00 0.00 0.00 75 1011.8
20260509151036 17 274 6.4 19.3 0.00 0.00 0.00 77 1011.8
20260509150936 17 133 6.4 19.3 0.00 0.00 0.00 76 1011.8
20260509150836 17 132 6.4 19.3 0.00 0.00 0.00 75 1011.7
20260509150737 17 140 6.4 19.3 0.00 0.00 0.00 75 1011.8
20260509150632 17 187 6.4 17.7 0.00 0.00 0.00 75 1011.8
20260509150532 17 183 6.4 17.7 0.00 0.00 0.00 75 1011.7
20260509150432 17 186 6.4 17.7 0.00 0.00 0.00 75 1011.7
20260509150331 17 187 6.4 14.5 0.00 0.00 0.00 76 1011.8
20260509150232 17 143 6.4 14.5 0.00 0.00 0.00 75 1011.8
20260509150132 17 150 6.4 14.5 0.00 0.00 0.00 76 1011.8
20260509150033 17 169 6.4 14.5 0.00 0.00 0.00 77 1011.8
20260509145932 17 189 6.4 14.5 0.00 0.00 0.00 76 1011.8
20260509145831 17 155 6.4 14.5 0.00 0.00 0.00 76 1011.8
20260509145732 17 205 6.4 14.5 0.00 0.00 0.00 76 1012.0
20260509145631 17 123 6.4 14.5 0.00 0.00 0.00 77 1012.0
20260509145532 17 113 6.4 14.5 0.00 0.00 0.00 76 1012.0
20260509145431 17 148 6.4 14.5 0.00 0.00 0.00 75 1012.1
20260509145333 17 256 6.4 14.5 0.00 0.00 0.00 76 1012.0